GFSSGP_sfc_temp_036.txt.gz
Temp
70 73 73 72 60 56 48 58 66 63 63 69 72 66 62 63 62 55 70 72 72 71 73 73 72 74 74 74 75 75 75 75 75 75 74 74 74 74 74 74 74 75 76 76 75 75 74 73 72
73 78 73 65 54 44 51 63 63 68 70 72 72 70 66 60 68 66 67 73 72 72 71 72 72 73 74 74 74 74 75 75 74 74 74 74 74 74 74 73 73 74 76 76 75 74 73 72 71
74 77 66 59 52 46 52 65 68 70 74 72 68 72 69 63 68 69 72 74 71 69 71 71 71 72 73 73 73 73 73 73 73 73 74 74 74 74 73 72 72 73 74 74 74 72 71 70 69
73 70 66 56 52 57 62 67 71 71 71 73 70 64 71 73 72 72 73 72 68 66 67 69 70 71 72 72 72 72 72 72 72 72 73 73 73 72 72 71 72 72 73 73 72 71 70 69 68
70 64 56 52 56 65 69 70 74 68 67 68 70 63 64 70 74 72 70 70 67 64 66 67 69 71 72 73 72 71 71 71 71 72 72 72 72 72 71 71 71 71 71 71 70 70 69 68 68
63 63 54 50 56 69 71 72 72 68 67 68 67 66 65 72 71 71 71 68 68 65 65 68 70 71 71 71 71 70 70 70 70 71 71 71 71 71 71 70 70 70 70 69 69 68 68 68 68
60 58 52 54 57 61 68 72 69 67 66 66 71 62 66 69 71 71 69 67 67 65 64 65 66 69 69 69 69 69 69 69 69 70 70 69 69 69 70 70 70 69 69 69 69 68 68 68 67
64 60 53 57 57 59 69 70 69 70 63 74 73 60 62 67 71 71 69 67 65 64 65 63 64 65 64 65 67 68 68 68 69 69 68 68 68 68 69 69 69 69 69 69 69 68 67 67 67
69 55 50 56 62 65 69 68 71 71 69 68 69 69 72 71 71 68 65 64 64 67 64 63 64 64 64 64 67 67 68 68 68 68 68 65 65 66 67 67 68 69 69 68 68 68 67 66 66
62 53 57 66 68 64 66 68 69 64 63 63 65 71 72 72 70 67 66 64 65 65 66 66 64 64 64 72 66 64 67 65 65 65 65 65 63 64 67 66 67 68 68 68 68 67 67 65 61
62 58 63 68 69 69 67 67 68 62 57 65 64 67 69 69 69 68 69 69 69 69 69 68 67 65 65 67 63 63 63 63 63 65 64 63 65 63 63 61 62 61 65 62 63 62 61 61 60
62 66 69 66 67 67 67 67 67 65 65 71 72 71 68 67 69 70 69 68 68 69 70 69 68 66 65 65 64 64 63 63 63 64 65 62 61 61 61 60 60 60 60 60 60 59 60 60 61
64 65 68 68 69 66 71 66 66 67 69 72 73 73 71 71 71 72 72 70 68 70 70 70 68 67 66 65 63 63 63 64 64 65 65 63 62 60 60 60 60 59 59 58 58 59 60 60 61
67 67 67 65 64 67 67 64 66 64 69 70 71 70 71 71 72 72 69 71 69 72 70 69 68 67 67 65 65 63 64 64 64 64 64 64 62 61 61 60 60 59 59 59 58 59 59 59 59
67 62 63 62 63 62 65 59 61 68 70 69 70 71 71 72 72 71 71 72 72 73 72 70 66 65 64 67 68 67 66 65 63 63 64 64 63 61 60 59 59 59 59 58 58 58 57 57 59
63 59 53 62 65 65 64 53 62 66 68 66 67 69 69 66 69 68 68 68 72 73 71 69 71 64 64 65 65 66 65 63 62 62 61 63 63 62 60 59 58 58 57 57 55 55 55 54 54
56 49 53 57 65 62 59 54 62 64 66 63 60 60 62 61 63 64 65 64 65 66 65 63 64 63 63 63 62 62 62 61 60 60 60 62 62 62 59 58 56 56 56 55 55 54 52 52 52
50 51 55 53 58 60 56 55 59 61 58 56 57 58 59 60 60 63 63 64 64 63 64 61 60 61 61 60 59 58 59 60 60 60 61 64 62 61 57 56 56 55 54 53 52 51 51 51 50
58 53 53 53 59 58 54 55 54 56 57 56 56 56 57 58 60 61 61 60 61 59 61 61 60 58 58 57 56 56 56 57 58 61 63 62 61 59 55 54 53 53 52 50 51 50 49 49 49
59 54 52 57 62 58 53 52 55 55 56 57 56 56 56 57 59 60 58 56 56 56 58 59 60 60 59 58 56 57 55 56 58 59 58 58 56 56 56 52 51 51 50 49 48 47 46 46 46
54 52 51 52 56 56 54 50 53 58 58 59 58 58 58 58 56 58 57 54 54 55 57 59 59 59 58 59 58 57 56 55 54 54 53 54 54 54 52 51 50 49 48 46 45 45 44 43 44
49 57 57 54 49 44 53 38 48 51 54 56 56 54 55 57 58 58 57 56 56 56 57 58 59 59 60 58 57 55 53 52 52 51 51 51 53 52 52 50 48 47 46 45 45 47 44 47 45
54 58 55 53 47 44 47 42 44 53 50 52 52 54 55 55 56 56 56 57 57 58 57 57 58 58 58 56 55 53 53 53 54 53 51 51 51 51 51 49 47 45 45 44 43 42 42 42 41
61 56 53 51 47 36 47 44 40 46 50 52 54 54 55 55 55 56 57 58 56 55 55 55 56 56 56 55 53 53 52 51 51 50 49 49 48 47 47 47 45 44 43 42 42 41 41 40 40
57 47 35 35 33 33 49 44 43 53 58 56 53 54 55 56 55 55 55 55 55 54 54 56 57 55 54 54 53 52 51 50 48 48 47 47 45 43 44 44 43 42 42 42 41 40 39 38 37
51 48 33 31 29 35 48 38 43 53 57 57 58 56 58 58 58 55 55 55 55 56 55 54 55 54 54 53 51 50 50 49 49 47 46 45 44 44 44 43 42 42 42 42 40 38 38 38 36
51 44 51 39 36 32 39 44 52 53 58 60 58 60 58 58 57 58 55 54 54 54 54 53 54 53 52 51 50 49 49 48 46 45 45 44 44 47 43 42 42 41 41 41 40 38 37 37 37
54 55 42 38 29 29 37 39 40 47 51 54 54 54 56 60 60 55 56 56 54 53 52 51 51 51 52 51 50 50 48 47 45 44 44 43 43 43 42 42 41 40 44 44 40 39 39 38 38
49 47 47 45 37 29 26 34 47 49 51 51 54 58 57 56 56 55 55 53 53 51 51 50 51 51 50 53 49 47 47 46 45 44 42 42 42 42 41 42 42 43 41 42 41 40 40 39 37
52 49 46 31 36 33 29 33 53 52 55 56 56 55 54 54 54 53 51 52 51 51 51 50 49 52 50 49 48 47 46 45 43 43 42 42 42 42 41 42 42 42 41 40 39 37 36 35 34

GFSSGP_sfc_temp_039.txt.gz
Temp
66 71 71 71 59 54 47 53 61 59 60 65 68 66 61 60 60 53 67 69 71 69 71 72 72 73 74 74 75 75 75 75 75 75 74 74 74 74 74 74 74 75 76 75 75 74 74 73 72
69 74 71 63 55 45 50 59 58 63 67 69 69 66 63 59 66 65 67 71 71 71 70 71 72 73 73 73 74 74 75 75 74 74 74 74 74 74 73 73 73 74 75 75 74 73 72 71 70
70 74 65 58 52 48 51 59 61 67 71 71 67 70 67 61 67 67 70 71 70 68 70 71 71 72 73 73 73 73 73 73 73 73 74 74 73 73 73 72 72 73 74 74 73 72 71 70 69
69 69 64 56 50 56 58 62 66 67 70 72 69 64 69 70 66 68 70 70 67 66 68 69 70 71 72 73 73 73 72 72 72 72 73 73 73 72 72 71 72 73 73 73 72 71 70 68 68
65 64 55 49 54 60 66 67 69 65 66 68 69 63 62 67 70 69 68 68 66 64 66 68 69 70 72 73 72 72 71 71 71 72 72 72 72 72 71 71 71 71 71 71 70 70 69 68 68
62 60 52 49 54 61 69 67 68 66 66 67 66 63 59 68 68 67 68 65 67 65 65 67 70 70 71 71 70 70 70 70 70 70 71 71 71 71 70 70 70 70 70 69 69 68 68 68 68
58 57 52 52 54 59 67 71 66 66 65 65 69 57 61 64 66 68 65 63 65 64 63 64 66 68 69 69 69 68 69 69 69 70 70 70 69 69 70 70 70 69 69 69 69 68 68 68 68
61 57 52 52 54 56 66 69 66 66 63 72 70 57 57 64 66 65 64 62 62 62 63 62 63 64 63 64 67 67 68 68 68 69 68 68 68 68 69 69 69 69 69 69 69 68 68 67 67
63 55 51 52 57 61 69 64 67 69 67 66 67 67 70 67 66 63 59 59 60 63 61 61 62 63 62 63 66 67 68 68 68 68 67 65 64 64 65 66 68 69 69 68 68 68 67 66 65
59 52 55 63 64 63 68 66 66 64 61 60 63 66 67 66 65 63 61 60 61 62 62 61 62 62 63 70 64 63 65 64 64 64 64 63 62 63 66 65 67 68 68 68 68 67 66 65 59
62 58 63 66 70 70 65 64 65 61 55 63 61 63 65 64 64 64 64 65 64 65 65 64 63 62 63 65 62 62 62 62 62 63 62 62 63 62 62 61 61 60 63 60 61 61 60 60 59
59 65 67 66 67 66 64 65 63 57 63 69 69 67 66 65 65 65 64 65 64 64 66 66 64 63 62 63 63 63 62 62 61 63 63 61 60 60 60 60 59 59 59 58 58 58 59 59 59
59 62 65 67 68 64 67 63 64 61 65 70 70 69 67 67 67 68 69 68 67 66 66 66 65 64 65 62 62 61 61 62 63 63 63 62 60 59 59 59 58 57 57 57 57 57 57 57 58
65 63 63 64 64 63 64 61 62 58 66 67 68 67 68 68 69 69 66 66 66 69 68 68 66 64 63 61 61 61 62 63 63 63 63 62 61 59 58 58 59 58 57 57 56 55 55 55 56
63 59 61 61 60 60 63 57 58 62 66 66 67 68 67 69 67 65 66 68 69 70 70 66 63 63 62 62 62 62 62 63 61 62 62 62 61 59 59 58 57 56 56 56 55 55 54 54 55
60 56 51 58 62 61 61 52 58 61 64 62 62 62 63 60 61 61 64 68 68 67 66 65 69 62 61 61 63 64 62 60 60 60 60 61 61 60 57 56 55 55 55 54 53 52 52 51 51
53 47 49 55 61 58 57 53 57 60 61 58 55 56 58 57 58 59 60 60 62 63 62 60 61 62 62 61 61 60 60 57 57 57 58 59 59 58 55 54 53 54 53 52 52 51 50 49 49
47 48 51 52 56 57 53 51 53 56 57 51 52 53 55 55 55 59 60 60 59 59 59 59 61 62 61 59 58 57 58 58 58 57 58 57 58 59 57 54 55 55 54 50 49 49 49 48 47
54 50 49 50 57 55 51 51 51 51 52 50 50 52 53 54 55 57 58 59 58 57 58 59 60 59 57 56 56 54 53 53 54 59 60 59 59 57 55 55 52 50 50 48 49 47 46 46 45
55 51 48 53 57 56 49 47 50 53 50 51 52 51 52 52 54 56 55 55 55 55 56 56 57 57 56 57 55 55 53 54 54 55 54 54 53 53 53 50 51 53 52 49 46 45 44 44 43
51 50 49 50 54 54 50 46 48 52 54 54 54 53 54 53 53 54 54 52 53 54 55 57 56 57 57 56 55 54 54 53 52 51 50 51 52 52 50 50 48 47 46 44 43 43 42 41 42
48 55 54 52 47 42 49 36 43 48 49 51 52 50 51 54 55 56 54 53 53 53 54 56 57 57 57 56 55 54 52 50 49 49 49 49 50 50 50 48 46 45 44 43 42 46 42 41 40
52 55 52 51 45 42 45 39 41 49 45 47 48 50 52 55 55 55 57 57 55 54 53 54 55 55 55 54 53 52 50 51 52 52 50 50 49 49 49 47 45 43 43 42 41 40 40 40 39
57 53 50 46 44 35 44 41 37 42 47 48 50 52 53 55 54 56 55 56 54 53 53 53 55 54 53 52 52 51 51 51 50 49 48 47 46 45 44 45 43 43 42 41 40 40 39 38 38
53 45 35 34 32 32 45 41 41 49 52 52 50 51 52 53 52 53 54 56 57 54 54 53 52 51 52 52 51 50 49 48 47 46 45 45 43 42 43 43 42 41 41 41 40 39 38 37 36
48 46 32 32 29 34 45 35 42 50 54 54 54 53 54 54 56 57 57 56 55 55 52 52 51 52 51 51 49 48 49 47 46 45 44 43 43 43 43 42 41 41 41 40 40 37 37 37 36
48 42 48 36 34 31 36 40 49 50 51 53 54 55 55 54 55 55 53 52 56 54 50 50 51 51 50 49 48 48 47 47 45 45 43 42 42 44 42 41 40 40 40 40 40 37 36 36 36
52 53 40 36 28 29 34 36 37 45 48 51 51 52 52 54 53 54 52 53 52 50 50 49 49 49 49 48 48 49 46 46 45 43 42 42 42 42 41 40 39 39 39 39 39 37 37 36 35
48 45 43 42 35 28 25 33 45 48 50 50 51 54 49 48 48 49 50 52 53 53 49 48 49 49 48 50 49 46 45 45 43 42 42 41 41 40 40 40 40 40 39 39 37 37 36 34 33
48 46 44 30 34 31 28 32 49 47 48 51 50 49 49 50 49 50 51 50 50 49 50 48 47 47 47 47 47 46 45 44 42 41 41 41 40 41 40 40 40 40 39 38 36 35 34 32 31

GFSSGP_sfc_temp_042.txt.gz
Temp
61 67 66 67 59 52 46 53 60 59 59 63 66 64 61 59 59 53 67 69 70 68 70 71 72 73 74 74 74 75 75 75 75 75 74 74 74 74 74 74 74 75 76 76 75 74 73 73 72
65 70 66 60 53 45 46 57 58 59 63 65 65 65 62 59 67 65 66 71 70 69 69 70 72 73 74 74 74 74 75 75 74 74 74 74 74 74 74 73 73 74 75 75 74 73 72 71 70
67 68 60 54 50 47 47 57 61 64 68 68 66 68 66 61 67 67 70 71 70 69 69 70 71 72 73 73 73 73 73 73 73 73 74 73 73 73 73 72 72 74 74 74 73 73 71 70 69
65 63 59 52 47 54 57 60 66 65 69 68 68 62 67 68 67 68 72 70 70 68 68 69 70 71 72 73 73 73 72 72 72 72 73 73 73 73 72 72 72 73 73 73 72 71 70 69 68
61 56 50 44 46 55 61 66 66 64 64 66 67 61 61 65 68 70 69 68 68 66 67 68 69 71 72 73 72 72 71 71 71 72 72 72 72 72 71 71 71 71 72 71 71 70 69 68 68
58 55 47 42 47 57 62 67 66 65 66 66 64 61 60 66 66 67 67 65 66 65 66 67 70 70 71 71 71 70 70 70 70 71 71 72 71 71 70 70 70 70 70 70 69 69 69 68 68
58 51 45 47 50 56 63 69 64 64 64 64 66 56 62 64 65 66 64 64 64 64 63 64 66 68 69 69 69 68 69 69 69 70 70 70 69 69 69 69 70 70 70 70 69 68 68 68 68
58 54 43 49 52 54 65 67 68 67 63 69 68 55 58 64 65 64 63 62 61 61 62 62 63 63 63 64 67 67 68 68 68 69 69 68 68 68 69 68 69 69 69 69 69 68 68 67 66
61 54 47 48 56 58 66 65 68 68 65 65 65 63 64 64 64 61 59 59 59 62 61 61 61 62 62 62 66 67 68 68 68 68 67 65 63 64 64 66 68 69 69 69 68 68 67 66 64
56 49 54 60 63 62 67 65 65 63 60 60 59 63 64 63 62 59 58 58 59 60 61 61 61 61 61 67 63 62 64 63 63 64 64 63 62 62 65 65 67 68 68 67 66 66 65 63 59
58 55 60 64 68 74 66 63 63 61 56 61 60 59 61 61 60 60 60 62 63 62 62 61 61 61 61 64 61 61 61 61 62 63 62 62 62 61 61 60 60 59 63 59 60 59 59 59 58
59 64 65 65 67 66 63 63 59 56 64 67 65 63 62 61 61 62 62 61 62 62 63 63 62 61 60 61 61 61 61 61 60 61 62 60 59 59 59 60 59 58 58 57 57 56 57 57 58
61 62 64 66 66 64 65 60 61 60 63 66 66 64 62 63 63 65 66 65 62 62 64 63 62 61 61 61 60 60 60 61 61 61 62 61 59 59 58 58 57 56 56 55 55 55 56 56 57
64 61 62 63 63 64 63 60 61 58 62 63 64 63 63 64 64 62 62 63 62 64 64 64 63 62 62 60 60 59 60 60 61 62 62 61 59 58 57 56 56 55 55 55 54 54 54 53 54
63 59 62 60 59 59 62 55 53 57 63 62 63 63 62 62 62 61 63 63 64 65 64 63 62 62 60 60 60 60 61 63 62 62 61 61 60 58 57 55 54 54 54 54 53 53 53 52 54
59 55 50 56 60 58 58 50 56 57 61 57 59 61 58 57 58 57 61 64 64 64 62 62 64 60 59 59 60 61 61 58 58 58 58 59 58 57 55 54 52 53 53 52 51 51 52 51 50
53 46 47 52 58 57 56 51 55 55 58 54 55 54 55 55 56 56 57 57 61 61 60 60 61 60 59 60 57 57 58 56 55 56 56 56 56 57 56 53 52 53 54 54 54 52 49 48 48
46 47 49 49 53 56 52 47 49 51 55 51 50 50 52 52 52 56 56 57 57 58 59 60 60 60 58 58 58 57 56 55 55 54 56 59 58 58 55 55 55 53 52 49 50 49 49 47 46
53 49 47 48 54 53 46 45 46 48 49 47 47 48 50 51 53 54 55 55 57 57 59 60 60 59 59 57 55 54 52 52 52 54 56 55 55 54 52 50 49 49 49 47 48 46 45 45 44
52 48 46 50 54 53 46 43 46 49 47 47 47 48 49 50 52 53 53 53 54 55 57 57 56 56 56 56 54 53 51 50 51 51 51 52 51 51 51 49 48 47 47 45 44 43 42 43 43
50 48 45 48 49 51 47 43 44 49 50 51 51 50 51 50 50 52 53 52 53 53 54 56 57 57 56 55 53 52 51 50 50 49 48 49 50 50 49 48 47 45 45 43 42 42 41 39 41
46 52 51 49 46 41 46 37 41 45 46 48 49 48 49 51 51 51 50 51 52 52 52 54 55 55 55 54 54 52 50 49 48 48 47 48 49 48 48 46 45 43 43 42 41 43 40 39 38
49 54 50 48 43 40 43 38 40 45 44 45 46 48 49 51 51 52 52 53 52 52 51 53 54 54 53 53 52 50 49 48 49 48 48 47 46 46 46 45 43 43 43 42 41 40 39 39 38
55 50 48 44 42 35 40 39 37 40 44 46 48 50 52 52 52 54 53 54 52 52 51 53 55 53 53 51 51 50 50 49 47 47 46 45 43 43 44 45 43 42 42 41 40 39 38 38 37
50 44 33 33 32 31 42 39 40 46 49 50 49 50 51 51 51 52 52 52 54 55 53 54 53 52 52 51 49 48 47 47 46 45 44 44 43 42 43 43 41 40 40 40 39 38 37 37 36
45 44 32 32 29 33 42 34 41 48 51 52 53 52 52 51 52 51 55 54 54 52 52 53 52 50 49 49 48 48 48 47 46 45 44 43 42 42 42 41 41 40 40 39 38 37 36 36 36
45 40 45 35 33 30 34 39 45 47 47 50 51 51 50 51 52 52 50 50 50 50 49 49 50 50 49 48 47 47 47 46 45 44 42 41 41 44 42 41 39 39 39 39 38 37 36 36 35
48 50 39 35 28 28 32 34 36 42 45 48 48 48 51 51 49 48 49 49 49 50 49 48 50 48 48 47 46 48 46 45 44 42 42 41 41 41 40 39 39 39 39 38 38 37 36 35 35
46 42 40 39 34 27 23 32 43 46 48 48 49 51 47 46 45 46 47 48 48 48 47 47 48 49 47 46 46 45 44 43 42 41 41 40 40 39 39 39 39 39 38 38 38 37 36 34 34
46 43 42 30 33 30 28 31 45 44 48 49 47 46 45 46 45 46 46 49 50 50 50 49 48 47 45 44 44 43 43 42 41 40 40 40 39 39 39 40 39 39 39 39 38 36 35 33 33

GFSSGP_sfc_temp_045.txt.gz
Temp
72 75 77 76 65 65 59 61 67 64 63 68 71 70 65 66 63 59 69 74 75 75 78 77 72 74 74 74 74 75 75 75 75 75 74 74 75 75 75 75 75 75 76 75 75 74 74 73 72
75 76 76 71 63 58 60 64 62 63 65 69 71 68 66 60 68 66 70 73 76 76 77 78 72 73 74 74 74 75 75 75 75 74 74 74 74 74 74 74 74 75 75 75 74 74 73 71 70
76 76 73 68 61 59 59 65 64 67 67 68 67 71 68 62 68 69 73 73 76 76 77 77 71 72 73 74 74 74 74 73 73 74 74 74 74 74 73 73 73 74 74 74 74 73 71 70 69
75 75 71 64 59 62 65 67 68 68 70 71 70 66 68 69 69 69 72 75 75 74 77 73 70 72 73 73 73 73 73 72 72 73 73 74 74 73 73 72 73 73 74 73 72 71 70 69 69
74 69 63 59 58 63 67 71 69 67 65 64 71 62 63 67 72 72 72 74 72 73 76 76 70 71 72 73 73 72 72 72 72 72 72 73 73 72 72 71 72 72 72 72 71 70 70 69 69
71 68 59 57 58 63 67 71 71 67 68 68 67 64 63 68 69 71 71 72 73 73 75 76 71 71 71 72 71 71 71 71 71 71 71 72 71 71 71 71 71 70 70 70 70 69 69 69 68
67 64 57 57 59 62 65 70 70 68 69 67 69 59 62 65 68 68 70 73 73 74 74 75 76 74 70 69 69 69 69 69 70 70 70 70 69 69 70 70 70 70 70 70 70 69 68 68 67
69 65 57 58 59 59 68 70 74 70 67 72 71 61 59 65 67 70 71 70 71 71 73 73 74 75 75 75 67 68 68 68 69 69 69 68 68 69 69 69 70 70 70 70 69 68 68 67 66
70 63 56 60 61 61 69 65 70 72 69 69 67 68 69 67 68 67 67 68 69 69 70 70 72 72 72 73 72 69 68 68 68 69 67 68 75 75 74 69 68 69 69 68 68 68 66 65 65
67 63 60 66 68 60 63 67 67 67 66 65 63 65 66 66 67 66 66 66 67 69 70 70 69 70 70 73 73 72 73 74 73 74 73 75 73 75 74 70 67 68 67 66 66 65 65 69 75
66 63 66 68 71 70 66 67 68 67 65 68 64 63 65 65 66 66 68 69 69 70 71 70 70 69 70 72 72 72 73 73 73 72 72 72 73 74 75 75 75 74 68 74 72 73 73 71 72
65 68 68 71 70 68 68 70 66 70 69 72 69 68 66 65 65 67 68 70 70 71 71 70 69 69 68 71 72 72 73 73 73 73 71 72 73 72 73 74 74 72 72 70 71 72 69 69 69
65 67 68 70 68 68 69 68 68 68 68 70 68 67 66 67 68 69 72 72 71 70 71 71 69 69 69 69 70 70 71 72 72 73 73 73 72 71 72 71 72 71 72 71 70 70 70 68 68
67 66 65 67 68 69 67 66 70 66 68 67 66 67 67 68 68 69 70 71 71 72 72 71 70 69 70 70 69 70 70 71 70 69 69 68 69 68 70 69 69 69 69 69 68 68 68 68 67
67 63 64 66 67 67 70 63 63 66 68 65 66 66 66 69 70 71 71 72 73 74 72 70 68 70 68 69 69 69 69 67 65 63 65 65 67 66 67 67 66 66 66 65 66 66 67 67 66
64 63 58 65 66 64 68 59 60 64 66 65 65 66 66 65 65 66 67 70 74 74 72 70 68 65 65 64 65 62 63 60 61 61 62 64 64 64 64 65 60 64 64 65 62 64 59 63 64
60 55 57 61 66 66 66 59 58 62 63 62 63 63 64 63 64 64 64 65 71 70 68 66 66 65 63 60 59 57 58 60 60 61 63 62 62 63 64 59 63 63 63 63 63 63 61 61 61
54 55 56 58 63 63 60 54 56 58 61 58 58 60 60 59 58 60 62 63 64 65 65 64 64 62 59 57 57 57 59 61 62 62 65 65 66 64 64 63 62 63 62 61 60 58 58 58 58
59 57 57 59 61 57 53 53 53 55 57 56 57 57 57 57 59 61 62 63 64 65 65 63 59 59 58 59 61 61 61 62 64 66 65 64 64 63 62 62 61 61 60 57 57 58 56 57 57
58 56 54 57 58 58 53 51 53 55 53 55 56 56 57 58 60 60 61 63 64 65 65 62 63 60 62 65 67 66 65 64 64 63 61 61 61 61 61 60 59 58 59 56 55 54 54 56 55
55 55 54 56 57 57 56 53 52 53 54 55 56 57 58 60 60 59 60 61 62 63 64 66 66 66 66 66 65 64 63 62 62 63 63 60 59 59 59 58 58 57 58 56 55 54 52 51 54
53 59 57 56 55 51 55 50 51 52 51 53 55 56 58 59 59 60 60 61 62 63 64 66 65 66 65 64 65 63 66 65 61 61 61 61 58 57 58 57 57 56 57 54 54 55 52 51 50
55 58 56 54 52 52 52 52 52 51 49 51 54 56 58 59 61 61 62 63 62 61 62 62 63 63 62 62 62 63 60 60 60 61 58 58 58 57 57 56 56 56 56 55 53 52 51 52 49
57 56 54 52 51 45 48 49 52 50 52 53 55 57 58 59 60 62 63 63 62 60 60 61 62 61 60 60 60 60 59 58 60 59 59 58 58 57 56 56 55 55 54 53 53 51 50 50 49
58 53 44 42 42 42 47 45 52 54 55 58 56 57 59 60 60 61 61 61 61 61 60 61 62 59 59 59 59 59 58 58 58 58 58 57 57 56 56 55 54 54 52 52 51 50 49 49 48
53 53 43 36 37 42 47 44 52 55 57 59 60 60 60 59 60 60 61 62 62 60 61 61 59 58 58 59 58 58 59 61 60 58 58 57 57 57 56 54 53 52 51 50 50 49 49 48 47
52 48 52 41 39 39 44 49 54 54 52 56 59 59 58 59 60 61 61 60 60 60 58 58 58 58 58 56 58 58 58 57 57 56 55 55 55 55 53 52 51 51 51 50 50 49 48 47 47
56 55 46 44 34 34 41 42 48 49 51 54 56 57 58 58 57 56 57 56 57 57 57 55 55 54 55 57 57 57 55 55 54 54 53 53 53 52 52 51 51 51 50 50 49 48 48 46 45
52 49 45 47 42 37 34 44 51 52 55 54 57 57 56 54 53 54 54 56 56 56 56 55 53 53 56 55 54 54 54 53 53 53 52 52 51 52 50 50 50 50 49 49 47 47 46 44 43
54 51 49 41 39 37 38 44 52 52 55 55 55 52 52 53 53 54 54 55 56 55 53 51 51 52 53 54 53 53 53 52 52 52 52 51 51 51 50 49 48 48 48 47 45 44 45 43 41

GFSSGP_sfc_temp_051.txt.gz
Temp
79 90 96 92 76 77 73 78 84 72 76 82 84 80 80 77 67 63 84 85 85 84 84 82 73 74 74 75 75 75 75 76 76 75 75 75 75 75 75 75 75 76 76 75 75 74 74 73 73
97 94 93 86 72 69 74 84 79 72 80 83 79 79 76 70 76 76 78 80 85 84 85 82 72 73 74 74 74 75 76 75 75 75 75 75 75 75 75 75 75 75 75 75 75 74 73 72 71
91 94 84 79 75 70 74 81 79 80 81 79 75 79 74 69 74 72 81 82 85 83 83 78 72 73 74 74 74 74 74 74 74 74 75 74 74 74 74 74 74 75 75 75 74 73 72 71 70
92 90 86 74 72 80 79 73 79 76 81 80 78 69 74 73 67 73 79 82 84 79 80 73 71 72 73 74 74 74 73 73 73 74 74 74 74 74 73 73 74 74 74 74 73 72 71 70 70
92 87 75 73 75 80 83 80 80 72 78 78 80 68 64 73 71 72 78 83 80 78 81 79 71 72 73 74 73 73 73 73 73 73 73 74 73 73 72 72 72 73 73 72 72 71 71 70 69
82 85 72 70 75 80 83 84 75 77 78 74 76 72 72 80 75 77 77 78 73 79 80 78 72 72 72 72 72 72 72 72 72 72 72 73 72 72 72 72 71 71 71 71 71 70 70 69 69
79 79 72 75 72 73 80 79 77 75 69 67 82 72 72 77 79 79 79 82 82 82 81 80 78 74 71 70 70 70 71 71 71 71 71 70 70 70 71 71 71 71 71 71 70 70 69 68 68
86 82 74 75 69 71 78 80 80 78 72 80 82 73 69 77 77 73 68 74 80 80 82 82 81 80 79 77 69 69 69 70 70 70 69 69 70 70 70 70 71 71 71 70 70 69 69 68 67
89 74 71 67 62 72 77 74 63 81 80 80 83 82 85 79 78 69 71 74 78 80 85 85 85 83 82 80 75 70 69 69 69 70 69 69 82 80 77 70 70 71 70 70 69 68 68 69 69
80 74 71 78 71 60 74 78 76 76 77 77 80 81 79 78 79 75 74 76 78 81 83 84 81 81 82 85 79 81 80 81 81 81 80 84 82 82 80 74 70 70 70 70 69 69 70 69 84
81 73 79 81 80 80 79 76 75 71 71 76 78 75 77 81 79 77 77 82 81 82 83 82 79 79 81 79 83 83 83 82 82 81 82 81 82 81 82 82 79 77 70 82 77 79 82 80 80
75 81 80 79 73 80 76 79 72 73 66 84 82 83 81 81 81 80 82 83 83 81 79 78 78 78 79 82 84 83 84 83 83 83 80 81 81 79 78 82 82 78 82 80 81 81 79 78 78
75 77 78 69 82 80 80 76 67 77 83 87 84 83 82 82 83 84 86 86 85 82 82 80 80 79 79 81 81 82 81 80 78 78 78 75 73 70 72 74 78 77 78 80 79 79 78 77 78
80 78 75 79 78 78 77 76 78 79 85 81 80 81 83 83 83 85 85 84 84 84 82 81 80 80 81 80 79 76 77 77 78 77 76 76 74 74 76 76 77 78 78 77 76 74 74 74 74
77 70 74 76 79 76 79 72 72 80 82 79 80 82 82 84 85 84 85 84 85 84 83 81 81 81 80 78 77 76 76 75 73 73 73 73 73 71 72 73 73 73 73 72 72 73 71 73 75
71 71 64 75 78 79 78 66 76 81 79 78 80 80 81 82 84 86 85 85 87 85 82 82 82 79 75 72 71 70 69 68 64 66 68 69 69 70 71 70 69 69 70 70 70 71 71 70 71
70 60 65 68 79 77 74 68 76 82 80 77 78 79 79 80 83 84 83 85 86 86 83 79 76 69 69 67 65 62 60 61 62 66 68 67 68 69 70 71 71 72 72 71 70 69 68 67 67
63 65 68 67 74 76 73 71 75 79 81 79 79 80 79 77 79 80 81 83 86 85 83 78 70 65 66 66 61 64 60 61 65 69 70 71 73 73 73 72 70 71 71 69 67 65 67 66 66
72 70 68 73 77 74 73 72 74 78 78 76 77 76 77 78 78 79 80 81 83 81 79 72 67 70 70 70 71 71 70 70 72 75 74 74 74 73 71 73 71 70 69 67 66 65 63 63 65
71 67 66 72 75 73 71 69 72 72 74 76 76 77 77 77 76 76 77 77 77 76 74 69 71 71 75 78 78 76 75 76 78 76 73 73 72 71 72 69 70 69 67 66 65 62 61 62 63
70 66 67 67 71 74 72 68 68 74 77 77 79 80 79 77 75 75 76 73 71 69 73 74 77 77 79 79 78 78 77 75 74 73 73 71 71 71 70 69 67 66 66 65 63 62 60 57 60
63 72 71 69 66 60 73 56 66 69 69 71 73 75 76 77 76 76 76 75 75 76 78 80 79 79 79 79 77 74 74 71 72 73 74 74 70 70 69 68 67 65 65 63 63 63 60 58 55
65 72 71 71 68 62 67 63 62 70 66 68 71 73 75 76 76 75 76 77 78 77 77 78 79 78 77 76 76 74 74 74 74 71 69 70 69 69 68 68 66 65 64 63 62 60 59 59 56
73 70 70 70 67 55 64 64 63 67 71 71 72 74 74 75 76 77 78 78 76 75 74 75 76 75 75 74 73 72 70 70 71 70 67 69 69 70 69 68 66 65 64 63 62 58 56 56 54
72 66 53 51 53 51 65 61 65 70 72 75 71 72 74 75 75 76 75 76 74 73 73 74 75 73 73 72 71 70 69 67 66 67 67 66 67 67 66 66 64 64 63 62 60 58 55 56 53
68 67 55 44 47 54 63 56 65 72 73 75 75 74 74 74 75 76 76 76 75 73 73 74 74 73 72 71 69 69 67 69 68 67 66 65 65 65 65 63 63 62 62 61 60 56 55 55 53
66 61 69 58 57 50 60 66 67 71 70 72 73 73 72 73 74 76 76 76 75 74 73 73 73 72 70 67 66 65 66 63 63 65 65 64 64 64 63 62 61 61 60 60 59 55 55 53 52
68 72 57 59 43 44 58 60 62 64 67 69 71 71 72 74 74 75 76 74 75 74 73 72 72 70 66 66 64 62 61 65 65 64 63 62 62 62 61 60 59 59 59 59 58 55 55 52 51
64 62 64 63 59 47 47 58 71 69 70 69 72 73 73 74 74 75 75 74 74 73 70 68 69 67 66 62 61 59 64 65 64 63 62 61 61 60 59 58 58 57 57 57 56 53 52 51 50
70 66 65 53 52 55 52 56 72 72 73 73 73 74 75 76 75 75 73 71 70 69 68 68 66 63 60 59 59 64 64 64 63 62 61 61 59 59 58 57 57 56 56 56 53 51 52 49 46

GFSSGP_sfc_temp_054.txt.gz
Temp
77 82 88 86 69 70 66 72 83 79 78 81 84 79 70 70 66 57 72 83 82 78 77 77 73 74 74 75 75 75 75 75 75 75 75 75 75 75 75 75 75 75 75 75 75 75 74 73 72
89 91 89 80 65 61 67 78 71 68 67 72 67 80 75 64 75 70 74 81 83 80 80 77 73 73 74 74 75 75 75 75 75 75 75 75 75 75 75 74 74 75 75 75 75 74 73 72 71
83 92 79 73 68 63 68 70 76 70 72 69 71 77 73 66 71 73 77 77 83 80 80 74 72 73 74 74 74 74 74 74 74 74 74 75 74 74 74 73 74 74 75 75 74 73 72 71 70
87 86 81 68 66 74 77 68 64 63 76 79 75 65 72 75 72 75 79 75 78 76 75 71 71 72 73 74 74 73 73 73 73 73 74 74 74 73 73 73 73 73 74 74 73 72 71 69 69
89 82 69 68 70 77 83 78 71 69 76 77 78 68 67 72 75 74 72 73 73 71 73 74 70 71 73 74 73 73 73 72 73 73 73 73 73 73 72 72 71 72 72 72 72 71 70 69 69
78 80 65 64 71 79 84 71 69 73 76 77 74 71 69 73 73 73 73 70 71 70 73 75 71 72 72 72 72 71 71 71 71 72 72 72 72 71 71 71 71 71 71 71 70 70 70 69 69
74 72 67 70 71 74 77 74 65 66 69 71 80 70 72 73 75 75 74 69 68 70 71 74 73 71 70 70 70 70 70 70 70 70 70 70 70 70 70 70 71 71 71 71 70 70 69 69 69
81 76 69 72 71 60 66 65 66 74 70 81 78 66 67 75 76 76 73 67 68 70 74 75 74 73 72 71 69 69 69 69 69 69 69 69 69 69 70 70 70 71 71 70 70 70 69 69 69
87 70 66 70 68 65 64 58 63 72 71 77 77 68 67 76 76 69 69 70 69 71 74 75 75 74 73 72 70 69 69 69 69 69 69 67 72 71 71 70 70 70 70 70 70 70 69 69 68
77 69 69 78 70 64 61 59 58 65 57 68 69 71 71 72 72 68 66 63 68 70 76 78 76 75 75 78 71 71 72 71 71 73 70 71 73 72 76 71 69 70 70 70 69 69 69 68 70
78 69 77 72 71 70 63 59 60 75 67 76 70 71 73 73 70 65 64 67 65 71 76 74 74 75 75 73 74 74 72 73 73 74 75 75 74 73 70 68 66 67 68 71 68 68 70 71 70
73 80 78 71 72 69 67 64 72 75 75 78 77 77 77 72 70 65 62 71 74 76 75 74 74 73 72 74 74 74 74 74 73 73 73 69 67 68 66 67 70 70 70 70 71 69 72 70 71
75 77 73 74 75 73 78 67 66 69 76 82 79 79 78 77 76 73 69 79 78 75 74 74 73 73 73 73 73 71 71 70 69 70 71 69 68 66 67 67 69 69 70 68 68 67 67 66 68
78 77 72 73 72 72 71 66 69 72 77 80 80 78 79 75 64 68 80 78 78 77 75 75 74 74 75 72 71 71 70 69 69 69 69 69 67 67 67 66 65 64 65 66 65 65 64 64 65
78 70 73 75 72 70 70 65 67 79 79 77 79 80 80 82 75 80 81 80 80 78 76 75 74 75 73 72 71 70 69 67 66 66 66 66 66 66 66 64 63 63 63 63 63 63 63 62 65
70 69 62 74 76 75 71 56 73 79 77 75 77 78 79 80 81 82 81 81 80 79 77 77 79 73 70 68 69 67 65 63 63 64 64 65 65 65 64 62 61 62 63 62 61 60 60 59 59
66 53 61 67 78 74 70 64 74 79 77 75 76 77 78 78 80 81 82 80 81 78 77 72 70 66 65 62 62 61 61 62 61 63 63 63 64 65 63 62 62 62 62 61 60 57 56 55 56
57 59 64 64 72 74 68 68 74 77 76 74 74 75 76 76 78 80 81 81 82 78 77 69 66 63 63 63 62 62 63 62 62 64 65 65 67 67 64 63 62 63 61 59 57 55 56 54 54
69 66 65 68 75 71 70 69 71 76 77 72 75 75 75 76 78 78 79 78 78 75 71 66 64 65 65 64 63 65 64 65 65 67 68 68 67 67 64 63 62 61 59 57 57 55 53 52 53
70 66 66 71 75 71 70 68 73 75 76 76 76 75 75 75 74 75 75 75 76 73 66 66 68 66 68 70 70 69 67 66 67 67 66 66 66 65 65 62 60 59 57 57 55 53 50 50 51
68 62 61 65 71 73 70 66 68 73 77 77 76 77 76 74 72 73 74 72 72 67 67 70 70 70 71 73 71 70 69 66 66 65 64 65 66 66 64 62 59 57 56 54 53 53 51 47 49
58 68 65 66 62 56 67 49 59 69 70 73 74 75 75 76 76 75 72 68 68 69 68 71 72 72 74 72 70 67 66 64 64 64 65 65 65 64 64 62 59 57 56 54 53 55 50 49 46
60 68 67 69 65 59 56 52 57 66 66 68 72 74 75 76 75 74 71 70 71 71 71 73 74 74 72 72 70 67 67 65 65 65 64 64 63 63 63 61 59 57 55 54 53 53 51 48 46
72 66 68 68 64 46 54 53 56 60 66 69 72 73 74 74 74 74 75 75 73 71 70 71 72 72 71 70 69 68 64 62 61 60 59 61 61 61 61 62 58 56 55 54 54 52 50 48 47
70 63 50 38 41 47 66 57 58 62 65 70 71 71 73 73 72 72 72 72 71 69 69 70 71 70 69 68 67 65 62 61 61 62 59 58 58 57 57 57 55 54 54 53 53 51 49 47 45
60 64 46 39 37 49 59 55 61 72 75 77 75 74 73 72 72 72 72 71 70 69 69 70 70 69 68 66 64 63 63 61 60 59 59 57 56 56 57 55 54 54 53 52 51 50 48 47 44
65 59 67 57 58 48 56 64 67 71 70 73 72 72 71 71 71 73 73 71 70 69 68 68 70 69 67 63 62 61 60 59 59 59 58 56 56 59 54 53 53 52 52 51 50 48 48 46 44
68 72 56 57 41 40 53 57 56 62 65 69 70 70 70 72 72 73 73 71 71 71 70 68 69 66 63 62 60 59 58 59 59 58 57 56 55 55 53 52 51 51 51 50 49 47 47 45 44
63 60 63 62 57 43 41 52 68 67 69 68 70 71 71 71 71 72 73 72 72 68 68 67 67 63 62 59 58 57 57 59 59 57 56 55 54 54 53 52 51 51 50 50 48 47 47 45 44
69 64 64 49 50 54 48 51 72 72 71 71 72 73 73 73 73 73 73 70 70 68 66 65 64 62 60 59 57 56 58 59 57 56 56 55 53 53 52 52 51 51 50 48 46 44 44 43 41

GFSSGP_sfc_temp_057.txt.gz
Temp
65 68 67 67 52 49 46 55 65 64 61 65 70 67 61 64 61 54 71 72 72 72 74 74 73 74 74 74 75 75 75 75 75 75 75 74 74 74 74 74 74 75 75 76 75 75 74 73 72
72 77 69 61 48 40 48 63 58 60 65 69 70 70 65 61 68 67 69 72 73 73 73 74 73 73 74 74 74 74 75 75 74 74 74 74 74 74 74 74 74 75 75 75 75 74 73 72 71
72 78 60 53 46 45 49 59 59 64 69 69 67 69 67 62 70 71 74 73 72 74 74 73 72 73 73 73 74 74 74 73 73 74 74 74 74 74 74 73 73 74 75 74 74 73 72 71 70
71 66 63 51 49 59 63 57 65 65 66 70 67 59 67 70 69 72 72 74 74 72 72 71 71 72 73 73 73 73 73 72 72 73 73 74 74 73 73 72 72 73 74 73 73 72 71 70 69
67 61 50 46 53 63 70 66 62 62 63 67 70 62 59 67 69 68 69 70 70 70 71 72 71 72 73 73 73 72 72 72 72 72 72 73 73 72 72 71 71 72 72 72 72 71 70 69 69
59 60 47 47 56 59 63 63 65 65 70 69 64 63 60 70 68 69 69 69 69 69 70 73 72 71 71 71 71 71 71 71 71 71 71 72 71 71 71 71 71 71 71 71 70 70 70 69 70
57 52 49 53 58 57 60 63 59 62 66 69 71 59 60 64 67 68 68 69 69 69 69 70 70 70 70 69 69 69 69 70 70 70 70 70 70 70 70 70 70 70 70 70 70 70 69 69 69
63 57 52 57 59 51 60 62 61 61 64 72 68 59 56 65 68 65 66 68 68 68 68 69 70 70 69 69 68 68 68 68 69 69 69 68 68 69 69 69 70 70 70 70 70 69 69 69 68
65 52 51 56 60 54 62 60 63 65 63 65 63 64 69 69 67 65 65 66 66 68 68 69 70 69 68 68 69 68 69 68 68 68 68 66 67 67 68 68 69 70 70 70 70 69 69 68 68
59 50 56 63 62 57 59 61 60 62 63 61 61 64 68 66 67 64 63 63 64 64 67 67 70 69 70 73 67 66 68 66 66 67 66 66 66 66 70 68 69 69 69 69 69 69 68 68 66
63 57 64 64 65 63 59 60 63 59 54 61 57 65 64 66 65 64 64 63 64 66 68 68 71 70 70 69 66 65 65 65 66 67 67 67 68 66 66 64 65 65 68 67 69 69 68 70 66
61 66 67 65 65 63 58 59 62 59 63 68 66 68 65 64 63 64 64 63 64 64 68 69 69 71 68 68 66 65 67 67 66 66 67 65 64 63 63 63 64 65 67 64 64 62 64 63 65
67 67 67 67 66 65 68 62 63 62 65 70 71 68 65 65 62 63 63 66 66 66 68 68 68 68 67 66 66 67 65 66 65 65 67 65 64 63 63 63 62 61 61 61 61 61 62 62 63
69 67 66 66 66 68 68 64 63 59 64 64 70 67 63 63 63 64 64 67 69 69 67 67 67 67 68 67 65 64 63 63 64 63 64 65 63 62 61 60 59 59 59 60 59 59 58 58 59
68 62 65 66 67 66 65 58 58 63 64 61 70 67 64 63 62 63 66 69 71 70 70 67 67 67 69 66 65 64 63 61 61 62 63 63 63 61 60 58 58 58 58 58 58 56 56 55 58
62 61 54 65 68 67 65 52 61 68 67 65 67 68 66 63 64 65 68 73 72 71 70 71 73 68 66 64 61 61 60 59 59 59 59 61 61 61 58 57 57 58 57 57 55 54 54 53 52
59 49 54 59 67 65 61 54 63 68 68 65 64 66 69 68 71 73 75 74 73 72 71 64 64 62 61 59 58 58 58 58 57 58 58 60 60 61 58 57 57 57 56 55 55 53 51 50 50
51 52 57 55 57 62 57 56 62 66 67 64 64 66 67 66 68 72 72 73 73 70 66 64 61 60 59 59 57 57 57 57 57 57 61 61 61 61 59 58 58 57 55 53 52 51 51 49 48
62 59 56 61 65 61 58 59 63 64 63 63 58 65 67 67 69 71 71 70 70 64 63 61 60 60 60 58 57 57 56 56 57 59 61 61 61 61 58 56 55 55 54 52 52 50 49 47 46
61 58 56 65 66 63 59 58 63 62 61 65 64 60 64 64 66 69 68 67 66 62 61 61 61 61 61 61 60 59 58 58 58 59 59 60 60 60 60 56 55 54 52 51 50 48 46 46 47
59 55 56 57 61 62 59 54 57 64 62 63 67 66 68 65 64 66 67 61 61 60 61 62 62 62 63 63 63 60 59 58 57 57 56 59 60 60 58 56 54 53 51 49 48 48 47 44 45
52 64 63 60 54 46 57 41 52 60 63 61 65 65 63 66 68 68 63 60 61 61 62 64 64 63 64 64 62 60 57 57 56 56 57 58 60 59 59 57 55 54 52 51 49 51 47 45 43
57 66 62 59 54 50 51 43 50 59 57 61 62 64 64 67 67 64 63 63 62 62 61 63 63 64 64 66 62 60 57 58 60 61 60 59 60 60 59 57 54 53 51 49 48 48 47 45 43
67 62 58 54 52 41 53 48 45 52 59 63 65 64 65 65 66 66 64 64 62 61 61 61 62 65 63 62 60 58 56 55 54 54 57 56 56 55 54 55 52 51 50 49 48 47 46 45 43
60 53 39 35 34 36 57 49 51 58 61 64 63 63 62 62 62 62 62 61 61 60 60 61 62 61 61 60 58 56 55 55 54 54 55 55 53 53 52 51 49 48 49 48 48 46 45 45 42
55 52 39 33 32 38 53 46 54 62 65 68 67 64 63 61 63 62 62 61 60 61 61 61 61 61 60 58 56 56 55 53 56 57 55 53 52 52 50 49 49 48 48 47 46 44 43 43 41
53 46 56 47 46 37 46 51 59 62 61 61 61 63 61 62 61 63 62 62 61 60 61 60 60 60 59 56 55 54 54 56 56 56 55 54 51 54 49 48 47 47 47 46 45 43 43 42 41
60 59 46 44 34 32 42 45 46 54 59 61 60 59 60 61 61 63 63 62 63 63 61 60 63 61 57 54 53 55 56 57 56 55 54 52 49 50 48 47 47 46 46 46 43 41 42 40 39
55 52 54 52 44 34 30 41 56 57 59 59 59 62 61 61 62 61 62 64 65 65 65 59 59 60 56 53 53 55 56 57 57 55 51 50 49 49 48 48 47 47 45 43 42 41 41 40 39
61 56 53 36 42 41 35 40 60 60 60 62 61 64 63 64 63 62 62 65 65 64 62 59 58 55 52 55 55 55 56 56 55 53 50 48 48 48 48 48 47 47 44 43 41 40 40 38 37

GFSSGP_sfc_temp_060.txt.gz
Temp
62 65 65 64 52 46 42 50 59 62 59 65 67 64 62 63 61 54 68 70 71 73 73 74 73 73 74 74 74 75 75 75 75 74 74 74 74 74 74 74 74 75 75 75 75 75 74 74 73
66 71 65 57 45 38 44 55 56 59 64 68 68 66 64 60 67 65 66 72 73 73 74 74 72 73 74 74 74 74 75 75 74 74 74 74 74 74 74 74 74 74 75 75 75 75 74 73 72
70 73 59 51 42 41 44 57 58 62 66 65 63 65 64 62 68 68 70 72 72 72 73 73 72 73 73 73 73 73 74 73 73 73 74 74 74 74 73 73 73 74 75 75 75 74 73 71 70
67 62 57 48 44 53 56 58 61 63 64 66 63 57 64 69 68 70 72 72 70 70 72 70 71 72 73 73 73 73 73 72 73 73 73 74 74 73 73 72 73 73 74 74 73 73 71 70 70
63 55 47 43 48 55 59 61 61 59 61 63 64 57 59 66 68 71 70 71 69 70 70 71 70 72 72 73 73 72 72 72 72 72 72 73 73 73 72 71 72 72 73 72 72 71 70 70 70
57 54 43 43 49 57 60 60 62 59 64 64 61 59 57 68 67 67 69 69 69 68 69 71 71 72 72 72 71 71 71 71 71 71 72 72 71 71 71 71 71 71 71 71 71 70 70 70 69
53 49 45 51 51 54 59 61 57 60 61 61 64 55 59 64 66 68 67 68 68 68 68 68 69 72 69 69 69 69 69 69 70 70 70 70 70 70 70 70 70 70 70 70 70 70 69 70 69
58 53 45 53 52 51 58 61 61 63 57 67 63 55 55 64 66 67 66 66 67 67 67 67 69 69 68 68 68 68 68 68 69 69 69 68 68 69 69 69 70 70 70 70 70 70 69 69 68
61 49 46 51 53 54 60 58 62 64 64 64 64 63 65 63 66 65 64 65 65 66 67 68 67 67 67 67 68 68 69 68 68 68 68 65 65 66 68 68 69 70 70 70 70 69 68 67 66
55 48 50 60 58 54 57 59 59 59 60 60 62 64 64 64 64 62 62 61 63 64 65 67 67 67 68 71 66 65 68 65 66 66 65 66 65 65 68 67 69 69 69 69 68 68 68 67 64
54 53 60 60 59 59 56 56 59 58 52 60 61 61 62 63 63 61 63 63 63 64 66 66 68 68 67 66 64 63 63 63 64 65 65 65 66 65 64 63 64 64 68 65 66 66 64 64 63
56 64 64 62 61 59 55 58 57 55 61 68 65 63 63 62 62 61 63 63 63 64 66 65 66 66 65 66 65 63 63 63 64 64 65 63 62 62 62 62 61 61 62 62 61 60 61 61 62
60 61 63 63 64 63 64 59 59 57 62 66 66 64 61 61 61 62 62 65 65 63 65 66 67 64 63 63 63 63 63 63 63 64 64 63 62 61 60 59 61 59 59 59 58 58 59 58 59
62 62 61 60 62 64 61 59 61 57 62 65 64 60 62 63 63 62 63 63 64 65 65 66 66 65 66 63 63 61 62 62 62 63 63 63 62 60 58 58 57 56 57 57 56 55 54 54 55
64 57 60 60 63 60 61 57 56 60 62 63 66 62 63 63 63 63 64 64 67 67 67 66 64 66 65 63 63 60 62 62 61 61 61 61 61 59 58 56 56 56 56 55 54 54 53 52 54
58 57 50 59 65 66 63 49 60 60 61 59 62 63 63 63 64 65 66 68 69 68 68 67 70 65 64 62 60 60 59 58 58 59 59 60 59 59 57 55 55 55 54 53 52 52 51 49 49
55 47 50 54 65 63 60 52 60 59 61 60 58 60 63 61 62 65 68 68 68 69 68 64 63 61 60 59 58 57 57 57 56 57 57 58 58 58 56 55 54 55 53 52 53 49 49 47 47
49 51 54 52 59 58 55 54 59 61 63 60 59 58 60 59 62 66 68 70 70 68 66 64 62 59 58 58 57 57 56 55 56 56 57 58 58 59 56 55 54 54 52 51 50 49 48 46 46
59 56 52 56 60 56 54 54 57 60 59 59 60 59 60 60 65 66 68 70 68 63 63 62 60 59 59 57 56 55 54 55 55 56 59 59 58 57 55 54 53 52 51 50 50 48 47 45 44
56 53 53 59 60 57 53 53 57 59 62 63 61 61 63 62 65 67 68 66 62 61 61 60 61 60 60 60 57 57 56 55 56 56 57 58 57 56 55 53 52 52 50 49 48 47 44 44 44
55 52 52 53 56 57 54 51 55 61 61 61 63 63 63 64 63 64 64 60 60 60 59 60 60 60 61 61 60 57 56 55 54 54 54 56 57 57 56 55 52 51 49 48 47 46 45 43 43
48 59 59 56 51 45 54 39 49 57 59 59 60 60 60 62 65 62 60 60 61 60 59 61 61 61 61 60 59 57 54 54 53 53 54 55 57 56 56 54 52 50 49 48 46 48 45 43 42
54 60 59 56 49 46 48 43 48 57 55 59 61 60 61 64 64 60 59 60 60 60 60 60 60 60 61 61 59 58 54 54 54 54 54 55 55 55 56 53 51 49 48 47 46 46 45 43 42
64 57 53 50 47 39 48 45 45 50 59 60 60 63 62 63 61 61 61 61 60 60 58 59 59 60 61 59 58 56 55 53 53 52 52 54 54 54 53 52 49 48 47 46 45 44 44 43 41
57 49 36 34 34 36 51 45 49 55 59 61 60 60 61 61 59 59 58 59 58 58 59 58 59 58 57 56 55 54 53 53 53 52 54 54 53 52 52 51 47 46 46 46 45 43 42 42 40
52 49 36 32 31 38 50 42 51 60 62 62 62 59 60 60 61 60 59 58 59 58 57 59 59 56 56 56 54 53 53 52 53 54 54 52 52 50 49 48 46 46 45 44 43 41 40 40 39
51 45 51 43 41 36 42 49 56 59 58 58 58 58 56 58 59 59 59 59 58 57 57 57 58 57 56 54 53 52 54 55 52 54 54 52 52 51 48 46 45 45 45 43 43 39 39 39 38
56 57 44 41 34 32 39 41 44 52 54 54 55 55 56 57 58 59 60 60 61 61 59 57 58 57 54 53 52 54 55 55 54 52 53 51 51 50 47 45 45 45 43 43 42 39 39 39 37
52 49 49 48 40 33 29 39 52 54 57 55 55 58 58 58 59 59 61 61 61 61 59 57 56 54 53 51 51 54 54 54 54 53 50 51 49 47 46 46 46 45 44 43 41 40 39 38 37
54 52 50 36 40 38 33 39 56 57 58 58 58 60 60 62 61 61 61 60 59 59 55 55 56 56 54 55 55 54 55 54 53 52 50 49 47 46 46 46 46 46 44 42 41 40 40 39 37

GFSSGP_sfc_temp_063.txt.gz
Temp
61 62 63 63 51 45 40 47 58 58 60 64 67 65 62 59 60 53 65 68 71 73 74 72 72 74 74 74 74 74 75 75 74 74 74 74 74 74 74 74 74 75 75 76 76 76 75 74 73
63 67 63 54 44 38 42 51 54 56 61 65 66 65 62 59 67 64 65 69 74 74 73 72 72 73 74 74 74 74 75 74 74 74 74 74 74 74 74 74 74 74 75 76 76 76 74 73 72
66 68 57 48 40 39 43 54 56 61 63 63 61 63 63 61 65 66 68 72 73 73 73 73 72 73 73 73 74 74 74 73 73 73 74 74 74 74 74 73 73 74 75 76 76 75 73 71 70
65 61 55 46 41 49 51 55 60 61 63 65 60 55 65 67 67 67 69 71 72 72 73 70 69 72 73 73 73 73 73 72 72 73 73 74 74 74 73 72 73 74 74 75 74 73 71 70 69
59 53 44 41 45 52 57 58 59 57 58 62 60 54 58 66 69 69 67 70 70 70 71 70 69 71 73 73 73 72 72 72 72 72 72 73 73 73 72 71 72 72 73 73 72 72 71 70 69
54 51 41 40 46 54 58 58 59 59 60 60 59 56 59 66 67 68 69 68 68 67 68 71 71 71 72 72 71 71 71 71 71 71 72 72 72 71 71 71 71 71 71 71 71 70 70 69 69
52 47 41 42 48 52 57 59 57 57 59 60 63 53 60 64 66 67 67 67 67 67 67 67 67 68 69 69 69 69 69 69 70 70 70 70 69 69 70 70 70 70 70 70 70 69 69 69 68
55 51 41 45 48 50 57 59 60 58 58 66 64 53 56 63 66 66 66 66 66 66 66 66 67 68 67 69 68 68 68 68 68 69 69 68 68 69 69 69 70 70 70 70 69 69 68 67 67
55 47 43 48 49 53 57 56 58 62 61 62 62 61 62 65 66 64 64 64 65 65 65 65 66 66 66 67 68 68 68 68 68 68 67 65 64 65 66 68 69 69 69 69 69 68 67 66 66
52 44 49 57 56 54 56 57 56 57 58 59 59 61 64 65 64 62 62 62 62 62 61 62 66 66 66 70 65 65 67 65 65 65 64 63 63 64 66 67 68 69 68 68 67 67 66 65 63
53 51 56 59 60 57 54 54 56 54 51 58 57 58 61 62 62 62 62 62 61 62 63 64 66 65 65 65 63 62 62 62 63 63 63 64 64 63 62 62 62 62 65 64 64 63 62 62 60
52 60 60 59 58 57 55 55 54 53 57 64 62 62 62 60 61 60 60 61 61 61 64 65 65 65 64 63 62 62 62 63 62 62 64 62 61 61 60 59 59 59 60 59 59 58 59 58 60
54 57 59 60 59 56 60 55 56 55 59 63 63 63 61 60 61 63 63 63 63 62 64 63 64 63 62 61 60 62 62 63 63 63 63 62 60 58 58 57 58 57 57 57 56 56 56 56 56
58 58 57 58 59 60 58 54 56 56 60 61 60 59 60 61 62 61 62 63 63 64 63 64 63 62 62 61 61 62 62 62 62 62 62 62 60 58 57 56 55 54 55 55 54 53 52 51 52
60 55 58 57 57 59 61 53 53 58 60 58 59 60 60 62 62 61 63 62 64 64 65 65 63 63 62 62 61 60 61 62 61 60 61 60 59 58 56 54 54 54 54 53 52 51 50 50 52
55 53 46 58 60 63 60 47 57 60 59 58 58 60 61 63 63 64 65 65 66 66 65 64 68 62 61 60 59 59 59 59 59 59 58 59 58 57 55 54 53 53 52 51 50 50 48 48 48
49 43 45 53 62 60 56 49 57 59 60 58 58 58 60 60 62 63 64 65 65 66 64 64 62 59 58 57 57 57 57 57 56 56 56 57 57 56 54 53 52 53 52 52 51 48 48 46 47
44 45 49 50 56 55 51 50 53 58 59 58 57 58 60 60 61 63 64 66 65 63 63 62 60 58 57 57 56 55 55 55 55 55 56 57 56 56 54 53 53 53 51 49 48 48 46 45 45
55 50 48 54 57 54 52 51 54 56 54 54 54 57 58 59 63 63 64 63 63 61 61 60 59 58 58 56 55 54 53 53 54 55 57 57 56 56 54 52 52 51 50 49 49 46 46 44 43
54 49 49 54 57 56 51 49 53 55 56 57 56 56 58 59 59 61 61 61 60 59 60 58 60 58 58 59 56 56 54 54 54 55 55 56 55 55 54 52 51 50 48 48 47 46 43 43 42
52 49 48 50 52 53 51 48 52 56 59 60 60 60 60 60 60 62 62 60 58 58 58 59 59 59 59 58 58 54 54 54 53 52 52 54 55 55 54 52 50 49 48 46 45 44 44 42 42
46 55 54 53 48 42 51 39 48 53 57 57 59 58 59 61 63 64 63 58 58 60 59 59 59 59 59 58 57 56 53 52 52 52 52 53 55 55 54 52 50 48 47 46 46 46 43 42 41
51 57 55 53 47 43 44 41 46 53 53 57 58 59 59 62 63 62 63 61 60 59 58 58 59 59 60 59 58 55 52 52 51 52 52 52 52 53 53 51 48 47 46 46 45 44 43 41 40
59 54 52 48 45 37 44 43 42 47 56 60 61 61 60 58 58 60 61 60 60 59 58 58 59 59 59 58 57 55 53 52 51 50 50 49 49 50 51 52 48 47 49 46 44 42 42 41 40
53 46 36 34 33 35 47 43 46 54 56 58 61 61 60 61 56 57 57 59 60 59 58 58 59 57 58 57 55 54 53 52 52 50 49 48 48 50 51 50 49 49 45 44 44 42 40 39 38
48 47 36 32 31 36 47 40 48 56 60 58 60 59 59 60 59 58 58 58 59 59 58 58 57 55 55 54 53 52 52 50 50 51 49 50 51 49 48 48 49 47 45 43 41 39 39 38 37
48 44 48 40 38 33 39 46 54 56 54 56 53 54 55 57 58 58 58 58 58 57 57 56 55 54 53 52 52 52 54 54 53 53 52 48 49 50 48 48 45 44 43 42 40 38 38 38 38
53 54 41 38 32 31 36 38 42 51 52 52 52 53 52 55 57 58 57 57 57 58 57 55 56 55 53 53 56 55 54 54 54 52 50 50 49 49 48 46 45 44 42 41 42 39 38 38 36
49 45 45 45 38 32 29 37 49 52 54 54 53 54 54 54 55 57 58 58 59 58 56 56 56 54 52 52 53 54 53 53 52 51 50 48 48 48 47 45 44 43 43 42 40 39 39 38 36
53 50 47 35 38 35 33 37 53 54 56 56 56 55 54 56 56 58 58 58 57 56 56 56 55 54 53 53 52 51 51 50 48 48 47 49 45 47 45 44 44 44 43 41 39 38 39 37 36

GFSSGP_sfc_temp_066.txt.gz
Temp
61 61 61 61 50 44 38 45 56 59 57 61 65 61 57 60 58 52 65 68 73 73 73 72 73 73 74 74 74 74 75 75 74 74 74 74 74 74 74 74 75 75 76 76 76 75 74 73 73
63 66 61 52 44 36 41 48 51 56 61 63 65 64 61 58 65 64 63 69 73 73 73 72 72 73 74 74 74 74 75 74 74 74 74 74 74 74 74 74 74 75 76 76 76 75 74 72 72
67 65 56 46 37 39 41 49 52 59 62 61 58 60 59 60 66 66 68 70 73 73 74 72 72 72 73 74 74 74 74 73 73 73 74 74 74 74 74 73 74 75 76 76 75 74 73 71 71
63 59 53 44 38 48 50 53 55 58 59 61 59 55 64 67 66 68 70 72 71 71 72 69 70 72 73 74 74 73 73 72 72 73 74 74 74 74 73 73 73 74 75 75 74 73 71 70 70
57 52 43 38 41 50 56 56 56 56 57 59 60 54 56 65 67 67 70 70 70 69 69 70 70 71 73 73 73 72 72 72 72 72 73 73 73 73 72 72 72 72 73 73 72 72 70 69 69
53 50 40 38 43 54 56 58 57 57 58 57 56 54 59 66 66 67 68 67 69 68 68 70 72 71 72 72 72 71 71 71 71 71 72 72 72 71 71 71 71 71 71 71 70 70 70 69 68
50 46 38 41 46 51 55 58 56 55 55 57 58 52 60 64 67 66 66 66 66 67 67 67 69 70 70 69 69 69 70 69 70 70 70 70 69 69 70 70 70 70 70 70 70 68 68 69 68
52 49 40 45 46 50 55 58 58 57 54 61 61 53 57 63 65 66 65 65 65 66 66 66 66 67 67 68 68 68 68 68 68 69 68 68 68 68 69 68 70 70 70 70 69 68 67 67 66
53 47 40 46 47 52 55 55 57 59 58 59 59 59 63 65 66 64 63 63 64 65 65 65 66 66 66 66 68 68 68 68 68 68 67 65 64 64 65 68 69 69 69 69 68 67 66 65 65
51 43 47 56 56 52 54 56 54 55 56 56 59 63 64 64 64 62 61 61 62 61 62 63 64 65 66 69 65 65 66 64 65 64 64 63 62 63 65 66 68 68 67 67 66 66 65 63 60
49 49 54 57 56 57 55 52 54 52 49 55 58 60 62 63 62 62 62 62 60 61 61 63 64 65 64 64 63 62 62 62 63 63 63 63 63 62 62 61 61 61 63 61 61 61 60 58 58
49 56 57 54 57 57 54 53 53 49 53 61 62 62 61 61 61 61 59 59 59 60 61 62 63 64 63 63 62 61 62 62 61 61 63 62 61 60 58 58 58 58 57 57 57 56 56 56 56
52 56 56 57 58 57 58 52 53 52 56 61 63 62 60 61 60 61 62 62 60 60 61 61 63 63 62 61 61 61 61 62 62 62 63 61 60 57 57 56 56 56 56 56 54 54 54 53 53
56 55 54 54 56 56 55 53 53 52 60 61 60 58 60 60 60 61 61 61 62 62 62 64 63 62 62 60 60 60 61 62 62 61 61 61 58 57 55 54 54 53 54 53 52 51 50 50 50
56 53 56 54 53 54 55 49 50 55 58 59 59 61 59 60 62 61 62 61 62 65 64 63 61 61 60 61 61 60 61 61 61 60 61 59 58 57 55 54 53 52 55 54 53 50 49 49 50
53 51 45 54 57 58 55 46 52 56 57 55 58 58 59 60 61 62 64 63 63 64 62 62 66 62 61 59 59 59 60 59 59 58 59 60 57 56 55 56 55 55 54 54 52 50 47 47 47
48 41 43 51 57 57 53 47 53 56 57 54 57 57 58 59 60 61 63 64 65 65 63 62 62 59 58 57 57 57 57 57 57 58 59 58 56 55 57 54 52 53 52 52 53 49 47 46 46
43 44 47 47 54 54 49 48 51 55 56 55 55 56 57 59 61 63 62 63 62 62 61 60 58 57 56 56 55 55 55 55 55 55 55 55 55 55 53 54 51 52 50 48 48 47 45 45 45
53 48 46 49 55 52 51 51 52 54 53 53 53 54 55 58 62 62 61 61 60 59 59 58 57 56 57 56 54 53 53 53 53 57 57 57 56 54 53 51 50 50 49 48 48 46 45 44 43
51 49 47 52 54 52 47 49 52 54 55 56 55 54 56 57 57 59 59 58 59 59 59 58 58 57 57 59 54 55 53 53 54 56 56 55 55 54 53 51 50 49 47 47 46 45 43 43 42
49 47 45 48 50 49 48 46 49 53 56 57 58 59 58 58 57 58 59 58 58 59 58 59 58 57 58 57 56 54 54 53 52 51 52 53 54 53 52 51 49 47 47 46 45 44 44 42 42
44 54 51 48 45 40 47 38 46 51 54 55 57 56 57 58 59 59 59 58 58 59 58 59 58 58 57 57 56 56 54 53 53 51 51 52 53 52 52 50 48 47 46 47 45 48 43 42 41
50 54 51 50 45 40 41 39 46 50 50 54 56 57 58 59 59 59 60 60 59 57 57 57 57 58 58 58 57 57 56 52 51 50 51 50 50 51 50 49 48 50 46 47 45 43 42 41 40
56 51 49 45 43 36 41 41 41 45 53 57 59 59 59 59 58 60 58 57 56 56 55 56 57 58 58 57 57 57 54 51 49 49 48 48 48 48 49 52 50 46 49 48 44 42 42 40 39
52 44 35 33 32 34 44 41 44 51 55 56 57 59 59 59 55 56 55 57 56 57 56 57 58 57 58 57 58 57 53 51 51 49 47 47 47 47 48 50 49 49 48 46 42 41 40 39 38
47 46 35 31 31 35 44 38 47 55 56 56 57 59 58 56 57 57 57 57 57 58 58 58 58 58 57 57 57 54 52 51 50 49 48 48 48 49 49 48 48 47 47 43 43 40 39 38 38
46 42 48 38 35 32 37 44 53 52 51 52 52 52 53 56 56 57 57 57 57 57 58 58 59 57 56 55 52 51 50 50 50 51 52 50 47 50 48 46 45 46 46 44 40 39 39 38 37
50 52 40 37 32 30 34 36 41 50 53 51 50 51 51 54 55 56 56 57 58 58 60 59 57 55 52 51 51 50 50 52 54 51 49 49 48 48 46 45 46 46 44 42 39 38 38 38 37
47 44 43 43 36 32 28 36 47 50 53 53 53 53 51 51 54 56 57 57 57 58 56 55 53 52 50 50 50 51 52 50 50 49 49 49 48 46 46 46 45 45 41 42 40 39 39 38 37
49 47 45 35 36 34 31 34 51 53 52 52 54 54 52 52 54 55 56 56 55 54 54 54 53 50 48 49 49 48 49 50 49 48 48 47 46 46 44 44 45 44 42 41 40 39 40 37 37

GFSSGP_sfc_temp_069.txt.gz
Temp
70 72 75 74 64 61 56 58 63 63 65 67 68 67 68 66 64 61 70 74 76 75 79 78 73 74 74 74 74 74 75 75 75 74 74 74 74 74 75 75 75 76 77 76 76 75 75 75 74
73 74 73 67 60 54 58 59 61 62 66 67 66 65 65 60 68 65 68 76 74 76 79 78 72 73 74 74 74 74 75 74 74 74 74 74 74 74 75 75 75 76 76 76 76 75 75 74 73
74 72 70 61 54 55 57 60 64 66 67 65 64 66 64 62 67 67 72 75 73 76 78 77 72 73 74 74 74 74 74 74 74 74 74 74 74 74 74 74 74 75 76 76 76 74 74 72 71
73 73 66 60 55 59 60 64 62 63 66 67 64 62 67 69 68 71 74 74 72 73 77 73 71 72 73 74 74 73 73 73 73 73 74 74 74 74 74 74 74 74 75 75 74 73 72 70 70
69 67 60 55 55 60 63 64 63 61 63 63 64 60 62 66 70 71 74 74 72 72 76 75 70 72 73 73 73 72 72 72 72 73 73 73 73 73 73 73 73 73 73 73 73 71 70 70 69
67 64 57 54 55 61 64 65 63 62 63 64 63 62 62 67 68 68 71 73 72 70 74 75 72 72 72 72 72 71 71 71 71 72 72 72 72 71 71 71 71 71 71 71 71 70 70 69 69
65 61 55 54 55 59 62 64 63 62 63 62 65 59 62 64 66 68 68 69 69 70 70 68 72 72 70 69 69 69 70 70 70 70 70 70 69 70 70 70 71 71 70 70 70 69 68 69 68
65 64 54 56 56 58 64 63 63 63 61 67 66 61 61 64 66 66 66 66 67 68 67 66 67 67 67 69 68 68 68 68 69 69 68 68 68 69 69 69 70 70 70 69 69 68 67 66 66
65 60 55 57 56 62 62 61 63 66 64 63 63 64 67 66 66 65 64 64 64 65 65 65 64 64 65 67 69 69 68 68 68 69 67 67 72 72 73 69 69 69 68 68 67 66 65 65 64
65 58 59 64 65 63 61 61 62 62 61 60 62 65 65 65 65 62 62 62 62 62 63 64 63 65 64 68 67 69 70 71 70 71 70 70 71 73 73 69 67 67 67 67 66 65 65 68 72
62 60 62 65 66 64 61 61 63 62 60 63 62 61 63 63 63 64 62 61 60 61 62 63 64 65 65 66 67 67 70 70 69 69 71 71 71 71 70 69 69 69 67 69 69 70 70 68 69
59 63 63 66 63 62 62 63 60 61 62 65 67 67 64 62 61 61 59 59 60 60 60 62 63 64 65 66 67 66 67 69 69 70 70 68 69 68 67 67 64 66 69 67 68 67 65 65 65
60 63 62 64 63 63 63 60 60 58 62 66 66 64 62 62 61 61 61 60 60 59 62 61 62 64 65 66 65 66 67 69 70 70 71 69 67 63 63 63 67 66 68 67 67 67 66 65 64
63 62 62 62 63 63 62 60 62 60 62 61 61 61 62 61 60 60 62 59 60 60 62 63 62 67 65 65 66 67 69 70 71 69 70 68 65 63 64 64 65 66 67 67 67 66 65 64 65
64 61 62 62 63 63 65 59 58 61 62 61 60 59 60 61 62 61 61 61 63 64 67 65 67 67 66 66 67 68 69 68 67 68 67 65 64 64 65 65 66 66 65 63 63 63 64 64 64
61 60 56 62 63 63 64 55 58 62 60 61 61 61 61 62 61 64 65 66 66 66 67 69 70 68 67 68 69 69 69 66 66 66 66 66 66 66 65 65 65 65 65 63 64 64 62 62 64
57 52 53 58 64 63 62 56 60 62 61 60 62 63 61 62 64 65 67 67 68 68 68 67 68 66 66 66 66 66 66 65 65 65 66 63 65 64 66 64 64 65 64 64 63 61 63 62 63
52 52 53 54 61 61 60 57 59 60 61 61 61 62 61 61 64 66 67 69 69 69 69 68 66 65 65 64 64 64 64 64 64 64 65 66 64 64 63 65 63 65 62 61 62 61 61 62 62
58 55 54 57 62 59 58 57 58 59 59 59 60 61 63 60 67 67 68 68 67 68 68 67 65 64 64 63 62 62 62 62 62 64 65 62 63 61 64 64 62 62 62 62 61 61 60 60 60
57 55 55 59 60 58 56 57 60 60 59 61 61 61 63 65 64 65 65 67 67 69 67 66 66 64 65 68 67 66 64 63 64 65 63 62 60 63 64 62 62 62 61 60 60 60 59 59 58
56 54 53 55 56 58 55 56 55 59 61 62 63 65 65 64 65 65 65 65 65 66 65 66 67 66 66 66 64 62 61 61 61 62 60 62 62 64 62 62 62 61 62 61 59 58 58 57 57
51 58 57 54 53 51 56 49 55 58 57 59 62 62 64 64 65 67 66 66 65 66 67 68 66 65 65 64 63 62 62 58 61 60 59 62 63 62 62 61 61 61 60 59 59 58 57 57 56
56 58 57 56 53 52 51 51 57 55 55 59 62 63 65 67 67 65 65 67 67 66 64 65 65 65 64 64 64 62 60 60 60 58 60 60 61 62 61 61 60 59 58 56 56 56 55 58 57
60 57 54 52 51 45 49 50 54 58 59 62 65 65 65 66 67 68 68 67 66 64 63 63 64 64 63 63 63 62 60 58 59 60 59 60 61 61 60 60 58 56 56 53 53 54 53 55 55
58 53 45 42 42 43 50 47 54 59 62 62 65 65 66 66 65 66 65 64 64 62 62 63 64 62 63 62 62 62 60 59 60 60 60 59 59 59 58 58 55 57 49 48 50 53 53 53 53
54 54 44 37 38 43 48 46 57 62 64 63 62 63 65 65 65 66 67 65 64 62 62 63 62 63 63 62 62 62 60 57 61 62 62 61 60 59 57 56 52 48 47 49 50 51 54 53 51
53 50 53 43 41 40 46 52 61 60 62 63 64 62 62 64 65 66 66 65 65 63 62 63 63 62 62 61 62 61 58 59 61 61 61 59 58 57 56 54 47 46 48 52 53 54 53 51 51
57 57 47 46 37 36 44 44 51 59 61 61 63 64 62 60 63 65 66 65 65 65 65 64 64 64 62 62 62 61 60 62 61 59 57 56 56 56 54 47 46 48 53 53 52 52 52 50 50
52 51 49 50 46 40 38 47 56 59 62 61 63 63 64 62 62 63 64 65 66 66 66 64 64 62 61 62 62 60 60 60 58 57 56 56 53 49 47 47 50 53 53 53 51 51 51 49 49
56 54 52 44 42 41 42 44 61 60 60 60 62 63 64 64 65 64 64 63 64 64 64 62 61 59 62 60 59 58 56 56 56 55 54 54 48 50 48 51 54 53 53 53 51 50 50 49 48

GFSSGP_sfc_temp_072.txt.gz
Temp
76 88 92 86 71 72 67 68 75 71 71 77 79 76 76 77 74 68 79 82 82 84 85 82 73 73 74 74 74 75 75 75 75 74 74 74 75 75 75 75 76 76 77 77 77 77 76 75 74
88 86 88 84 67 63 67 72 70 74 74 73 74 75 75 72 76 72 73 80 85 85 86 85 72 73 74 74 74 74 75 75 74 74 74 74 75 75 75 75 75 76 76 77 77 76 76 74 73
86 86 80 75 69 63 66 72 74 76 76 72 72 75 74 72 74 75 80 78 81 83 86 83 72 73 74 74 74 74 74 73 73 74 74 74 75 75 75 74 74 75 76 76 76 76 74 72 71
87 85 81 68 65 70 70 74 74 72 74 75 72 64 73 72 73 78 80 80 76 80 84 74 71 72 73 74 74 73 73 73 73 73 74 74 75 75 74 74 74 75 75 75 76 74 72 70 70
89 83 70 66 67 70 74 75 75 72 72 72 71 68 65 70 76 77 77 76 73 76 81 79 70 71 73 74 73 73 72 72 73 73 73 73 74 74 73 73 73 73 73 73 73 72 71 70 69
79 80 67 64 66 71 73 74 71 71 72 72 71 65 60 68 71 77 75 77 76 78 78 79 71 72 72 73 72 71 71 72 72 72 72 72 72 72 72 71 71 71 71 71 71 70 70 70 69
75 73 66 66 65 68 69 74 70 72 72 72 75 69 69 68 71 74 76 79 77 74 76 74 74 72 68 68 69 70 70 70 71 71 70 70 70 70 70 70 71 71 71 70 70 70 69 68 68
80 76 66 68 67 66 73 70 72 72 71 76 75 71 70 66 70 71 71 69 69 67 68 67 66 66 68 68 68 68 68 69 69 69 69 68 69 69 69 69 70 70 70 69 68 68 67 67 66
80 70 67 66 67 70 73 70 70 75 73 73 73 73 75 68 68 68 66 65 65 65 65 64 63 63 66 69 69 69 68 68 68 69 68 70 76 78 77 70 69 69 68 68 67 66 66 65 64
75 70 68 75 76 73 71 68 71 70 68 70 70 73 73 67 65 62 63 62 62 62 62 62 62 61 61 65 68 71 71 76 77 76 77 79 78 81 79 71 67 67 67 66 66 67 68 72 81
75 69 73 75 76 77 72 71 72 71 71 74 71 71 65 67 65 64 62 62 62 62 62 62 62 62 62 62 63 66 71 73 75 76 79 77 78 77 79 75 76 75 72 76 75 76 79 76 78
69 74 73 75 73 72 72 74 71 72 72 75 75 73 65 64 64 62 60 60 61 62 63 63 62 64 64 65 68 69 71 73 73 74 76 76 78 77 77 78 77 74 77 74 75 75 73 73 73
70 73 73 73 72 73 73 70 69 71 71 74 75 70 64 62 61 61 61 61 60 59 59 60 63 64 65 66 68 70 71 72 74 73 76 79 78 76 76 74 73 76 75 77 75 74 74 72 72
72 72 72 73 73 73 70 70 72 71 67 64 63 64 64 63 61 60 60 59 60 60 60 61 60 63 64 68 70 71 72 73 74 75 77 76 77 73 70 70 74 75 77 77 76 75 74 74 73
73 68 71 72 73 72 74 69 68 71 70 68 65 61 61 62 61 60 64 61 61 60 61 62 63 67 69 71 73 73 74 76 77 75 73 71 69 70 71 74 75 76 74 71 73 72 73 74 74
69 70 64 71 72 72 71 64 70 72 70 70 68 67 60 60 61 61 63 68 66 67 66 70 72 72 71 72 73 74 76 76 75 75 75 73 73 73 73 74 74 73 73 73 73 73 72 72 73
68 62 62 65 73 71 69 66 72 73 71 71 70 69 67 63 60 66 69 70 73 73 73 72 73 72 72 73 75 76 75 75 73 71 75 73 73 73 74 74 72 72 73 72 72 71 73 71 73
60 61 62 63 70 70 69 68 71 72 71 71 71 72 70 70 68 68 71 74 75 74 75 74 73 71 73 72 72 74 74 71 70 72 73 71 73 72 73 73 72 74 72 71 70 69 71 72 71
67 64 62 68 71 68 68 69 71 70 69 69 69 70 71 72 74 74 74 74 75 74 74 74 73 73 73 72 73 73 69 67 68 70 71 70 66 71 73 74 71 72 71 70 68 69 67 69 70
66 62 62 67 68 65 68 68 73 71 70 72 71 72 73 70 71 73 74 73 73 73 73 74 74 73 74 76 76 75 73 68 69 74 68 70 69 70 71 71 71 71 70 68 67 67 68 69 68
65 62 62 62 66 68 65 65 67 72 73 72 73 76 76 75 71 71 73 73 73 73 73 75 76 77 76 77 77 75 74 71 70 70 65 66 66 69 72 71 71 69 70 68 67 66 65 66 66
59 68 66 63 61 59 65 55 66 71 69 70 71 74 75 76 77 75 74 75 74 75 77 78 78 77 76 76 75 71 72 70 71 68 67 66 66 70 71 71 70 69 70 68 67 67 66 63 63
62 67 65 64 62 61 62 59 66 68 67 71 73 73 76 77 78 78 77 77 78 77 77 77 77 76 75 74 73 72 72 71 67 59 59 65 67 70 71 70 69 68 69 67 64 63 62 65 62
67 64 63 63 62 52 60 59 66 68 69 72 76 77 77 77 79 79 80 79 78 76 74 73 74 73 74 72 71 71 70 66 63 58 58 65 69 69 68 70 68 68 65 64 62 57 55 59 62
66 61 52 48 49 49 59 57 63 71 73 73 75 76 79 80 79 79 79 78 77 75 73 72 73 73 74 71 70 67 68 66 65 62 62 68 67 66 67 68 66 65 64 53 49 51 61 61 60
64 63 53 41 45 51 56 53 65 73 75 76 76 76 77 78 80 79 80 79 78 74 72 73 73 73 73 71 68 68 69 68 67 64 67 68 68 68 68 66 66 64 49 48 50 57 61 61 59
61 57 64 53 51 50 57 62 70 73 73 74 75 75 75 76 78 79 80 80 77 75 73 73 74 75 72 68 68 67 67 66 66 65 69 69 70 69 65 64 60 51 48 49 54 59 60 59 58
65 69 54 57 42 41 54 55 59 66 69 72 75 76 76 74 76 78 79 79 79 78 77 74 77 76 74 71 68 66 68 68 64 66 68 68 68 65 62 57 51 47 48 55 59 60 60 58 58
60 59 60 60 56 46 44 55 69 69 71 71 74 75 76 76 75 76 77 79 78 78 77 75 76 77 75 72 68 65 66 64 63 64 64 64 62 59 55 50 49 56 58 60 59 59 59 57 57
68 64 63 52 50 53 50 52 74 73 73 73 74 76 77 76 77 77 77 77 77 76 76 76 75 75 75 72 67 64 61 59 56 56 57 57 53 52 50 51 56 58 61 60 59 58 59 57 56

GFSSGP_sfc_temp_078.txt.gz
Temp
75 82 85 83 67 68 62 67 78 76 78 85 83 81 78 74 63 58 68 66 74 79 78 77 74 74 74 74 74 75 75 75 75 74 74 74 75 75 75 75 76 76 77 77 77 76 76 75 74
87 90 88 78 63 58 63 74 72 78 78 80 82 82 79 65 64 62 65 64 62 80 79 77 73 74 74 74 74 74 75 75 74 74 74 74 75 75 75 75 75 76 77 77 76 76 75 74 72
81 90 77 71 65 60 64 73 77 81 81 77 77 84 80 60 65 69 71 69 67 78 81 77 72 73 74 74 74 74 74 74 74 74 74 74 75 75 75 74 74 76 76 77 76 75 73 72 71
86 85 80 65 64 72 73 76 77 77 71 69 68 71 78 76 67 69 74 77 76 78 80 71 71 72 73 74 74 73 73 73 73 73 74 74 74 74 74 74 74 75 76 76 74 73 71 70 70
88 81 68 66 67 73 78 78 78 73 63 61 59 55 71 74 78 75 79 81 76 76 73 73 70 72 73 74 73 72 72 72 72 73 73 74 73 73 73 72 73 74 74 74 72 71 70 70 69
76 80 64 62 67 72 68 69 75 70 59 57 55 59 70 75 74 77 77 78 76 72 74 73 72 72 72 72 72 71 71 71 72 72 72 72 72 71 71 71 72 72 72 71 71 70 69 69 69
74 72 66 68 69 69 69 70 73 67 55 53 59 62 68 76 75 73 74 75 67 65 71 72 72 72 70 69 69 69 70 70 71 71 70 70 70 70 70 70 71 71 70 70 70 69 68 68 68
80 75 67 70 68 65 72 76 78 76 69 68 63 58 56 72 75 70 68 65 63 62 63 65 69 69 68 68 67 67 68 68 68 69 68 68 69 69 69 69 70 70 70 69 69 68 67 67 67
86 68 64 67 70 71 76 75 82 83 77 72 69 62 71 76 71 66 64 63 63 62 64 65 64 65 67 68 68 68 68 68 68 68 68 68 71 70 70 68 68 69 69 68 68 67 66 67 67
76 68 68 77 78 75 78 78 80 77 68 63 57 70 73 74 68 64 61 60 61 62 63 63 63 63 66 67 67 68 70 70 70 70 69 70 69 70 69 67 67 67 67 67 67 67 67 68 67
78 69 77 78 80 80 77 74 77 77 63 62 60 75 71 70 65 62 61 62 61 61 60 61 62 63 62 63 63 63 65 68 68 68 70 69 70 68 66 66 67 65 67 68 67 66 67 69 67
72 78 79 80 81 79 76 72 76 78 72 76 78 76 73 69 62 60 60 60 60 60 60 60 61 61 60 61 60 63 67 65 67 70 69 69 67 67 66 69 67 67 67 67 67 66 67 66 68
75 77 80 82 80 79 80 76 76 62 71 76 77 71 66 62 60 60 61 61 60 59 60 60 61 61 61 61 63 65 65 68 68 69 70 69 68 66 67 68 68 69 68 67 66 66 66 66 66
78 78 78 80 79 78 76 72 72 57 66 73 70 67 63 60 59 59 58 57 59 59 58 60 60 60 61 61 62 62 65 66 67 67 69 70 67 66 66 67 68 67 68 68 67 65 65 64 64
79 71 75 70 70 68 74 67 60 67 72 72 69 67 65 61 61 58 58 57 57 57 58 58 58 59 58 58 58 61 64 66 66 67 68 68 68 67 67 66 66 66 68 66 66 65 64 63 65
71 72 60 63 67 73 74 56 62 66 69 71 70 67 63 60 59 59 58 58 58 58 58 59 60 58 58 58 57 59 63 66 66 66 67 68 69 67 67 67 66 67 65 65 63 62 61 61 61
69 58 60 66 71 70 73 60 61 67 68 71 69 67 61 57 58 59 60 60 59 59 59 59 59 58 58 59 59 62 66 65 65 66 66 69 68 68 66 66 66 66 65 63 64 62 61 60 61
58 57 64 63 70 72 70 69 63 65 76 71 66 63 61 59 57 59 60 61 60 60 60 59 60 60 60 59 62 66 66 67 67 66 66 68 69 69 67 67 65 66 64 63 62 61 61 60 59
69 66 65 70 74 70 69 70 73 75 75 72 66 66 64 62 63 63 63 65 63 61 61 62 62 62 61 61 64 66 66 64 64 66 68 68 69 69 68 67 65 64 63 62 62 60 59 58 59
69 65 64 70 75 71 69 68 74 74 74 72 70 66 65 65 65 65 67 67 65 63 63 64 65 64 65 65 70 70 69 67 65 67 67 68 68 68 68 66 65 64 62 60 60 59 58 58 58
66 63 64 64 71 72 68 64 70 74 76 74 74 72 70 68 65 66 67 67 68 66 66 68 68 68 69 69 71 71 69 66 65 64 66 68 65 64 64 67 65 63 62 59 59 59 59 55 57
61 72 70 66 63 56 63 51 65 70 70 74 73 73 72 71 71 69 68 68 69 69 70 71 72 70 71 71 71 69 68 65 66 65 67 67 65 65 68 69 65 63 62 60 59 62 58 57 53
65 72 68 67 63 62 60 55 65 71 66 71 73 74 73 75 72 70 71 71 72 71 70 71 73 72 72 71 69 69 66 66 66 66 65 62 62 62 62 64 65 63 62 61 60 58 57 56 54
74 69 67 66 62 50 61 59 57 60 68 74 75 76 76 75 75 74 74 74 73 72 70 71 73 73 72 71 70 68 68 67 66 64 62 61 61 61 62 65 64 62 62 61 58 57 55 53 53
70 62 49 44 46 47 62 57 62 67 74 77 77 77 77 78 75 73 74 74 73 72 71 72 73 73 74 70 71 69 69 68 67 65 62 60 59 60 61 63 61 61 62 58 56 53 52 53 51
64 62 51 39 34 45 56 53 63 75 79 80 80 80 80 78 78 77 75 74 75 73 72 72 73 73 75 71 70 70 70 70 68 66 62 62 62 61 62 62 62 61 59 54 53 52 52 52 51
64 57 67 56 56 47 53 56 70 76 76 78 78 80 78 79 79 80 81 77 75 75 74 72 74 75 75 73 70 69 70 69 67 63 63 64 63 63 62 62 60 57 55 53 52 49 50 49 49
68 71 55 58 42 40 53 57 50 63 69 74 75 76 78 79 79 80 81 80 78 77 77 74 75 76 75 75 72 70 68 69 67 64 64 63 61 61 60 59 55 52 51 49 49 48 49 48 51
63 61 62 62 57 44 41 52 61 65 69 73 76 77 78 79 78 79 80 82 81 79 77 76 75 76 75 75 73 70 68 66 64 63 61 59 57 55 51 51 50 49 49 49 47 48 49 52 53
70 64 63 52 51 54 49 51 74 73 74 76 76 79 79 80 80 80 80 81 81 80 78 76 74 74 75 75 73 67 64 63 61 57 56 54 52 52 50 50 50 50 51 51 49 49 52 52 52

GFSSGP_sfc_temp_081.txt.gz
Temp
64 67 67 66 52 48 45 54 65 65 67 73 73 72 65 61 65 56 63 66 70 68 67 75 73 74 74 74 74 75 75 75 75 75 75 75 75 75 75 76 76 76 77 77 77 77 76 75 74
70 76 68 61 47 39 49 61 63 64 60 67 72 69 69 60 65 63 61 67 71 71 69 72 73 74 74 74 74 75 75 75 75 75 75 75 75 75 75 76 75 76 76 77 77 77 76 74 72
71 76 60 53 47 45 48 65 65 64 63 61 58 64 66 60 67 68 67 68 70 69 68 66 71 73 74 74 74 74 74 74 74 74 75 75 75 75 75 75 75 76 76 76 76 76 74 72 71
70 66 63 50 49 56 62 62 62 62 61 62 61 59 64 68 67 69 68 68 66 67 68 66 70 73 74 74 74 73 73 73 73 73 74 74 75 75 74 74 75 75 76 75 75 74 72 70 70
66 60 49 47 54 63 64 65 60 57 60 60 62 57 61 68 71 72 68 71 68 69 70 70 71 72 73 74 73 73 72 72 73 73 73 74 74 74 73 73 74 74 74 73 73 72 70 70 70
59 60 47 49 56 65 63 62 63 62 60 61 62 57 61 68 67 69 67 65 64 63 69 70 71 72 73 72 72 71 71 72 72 72 72 72 72 72 73 73 72 72 71 71 71 70 70 69 70
57 52 48 52 58 60 64 66 63 60 60 60 60 54 62 65 66 65 65 63 63 63 62 63 71 72 70 70 70 70 70 70 70 70 70 70 70 70 71 71 71 71 70 70 70 69 69 69 69
63 56 51 54 56 56 66 70 68 64 57 64 62 58 56 62 66 65 63 62 62 63 62 62 65 69 68 68 69 68 68 68 69 69 68 68 68 69 69 70 70 70 70 70 69 68 68 69 69
66 51 50 56 60 62 68 67 72 68 62 62 62 63 63 66 65 63 62 61 61 62 61 62 63 66 67 68 68 68 68 68 68 68 67 67 68 67 68 69 69 69 69 69 68 68 67 67 69
58 49 55 68 65 63 70 69 67 66 64 61 63 69 64 66 63 61 60 59 60 60 61 63 64 65 66 67 67 68 69 67 68 68 67 68 66 67 67 67 68 68 68 68 68 67 67 67 65
63 56 67 70 70 68 67 68 66 64 61 62 62 66 67 63 63 62 60 61 61 62 62 63 63 65 65 65 65 64 66 68 67 66 68 67 66 64 64 64 64 64 66 65 65 64 65 65 63
60 69 69 70 73 70 64 65 61 59 61 69 64 62 63 61 60 60 60 60 60 60 60 61 61 61 60 61 61 63 64 64 65 68 66 66 65 63 64 64 63 63 63 62 62 61 62 63 64
65 67 72 71 69 69 72 61 63 59 64 70 65 63 61 60 60 60 60 60 59 58 59 59 59 59 60 61 63 65 66 68 65 66 66 67 65 64 63 63 63 63 63 62 61 62 63 62 62
69 69 69 67 67 68 68 64 62 61 67 69 64 60 61 59 59 58 59 58 59 58 58 59 59 58 60 60 61 61 64 63 64 64 65 65 64 62 62 64 64 63 64 64 63 62 61 60 61
70 62 65 67 66 63 65 56 56 65 66 67 66 61 59 59 59 57 58 57 58 58 58 59 58 60 59 58 60 62 63 64 63 64 66 65 64 64 64 62 62 63 63 63 63 61 59 58 61
62 60 51 60 65 66 64 52 63 63 63 61 63 59 58 58 57 57 58 58 58 58 57 58 60 58 58 58 58 60 60 61 62 64 63 63 65 66 62 61 61 62 61 61 60 59 57 57 56
55 48 52 58 68 63 58 52 60 64 65 61 59 56 56 56 56 56 58 58 59 58 58 57 58 58 57 57 57 59 60 61 62 62 62 65 65 65 63 61 61 61 61 60 61 58 57 56 55
49 51 56 55 60 61 59 55 56 60 62 57 54 52 55 56 56 58 58 59 59 59 60 59 60 59 57 57 59 62 61 62 62 61 63 65 65 66 63 62 61 61 61 59 58 58 56 56 55
61 59 54 57 66 62 60 55 56 60 61 56 53 53 52 55 58 59 59 59 59 59 58 58 56 56 56 55 57 60 61 60 61 62 65 65 65 66 62 62 60 61 59 58 58 55 55 54 54
64 57 54 61 68 65 59 58 63 64 60 58 56 55 55 53 56 57 57 59 58 56 57 58 57 56 58 57 60 61 63 62 63 63 63 64 64 63 62 62 61 61 59 57 56 56 54 53 53
60 56 56 57 63 62 56 53 59 66 64 62 62 60 59 55 54 56 58 57 56 56 56 59 59 58 60 61 62 63 61 60 61 61 62 63 63 62 63 63 62 60 57 56 55 55 55 52 52
54 64 64 61 55 45 55 41 52 60 62 61 61 60 59 59 60 60 60 58 57 57 60 62 63 61 61 63 63 63 63 61 61 60 61 61 61 61 62 63 63 61 59 58 56 58 54 53 51
59 66 62 59 53 48 51 46 51 60 58 61 61 61 61 61 61 62 62 62 61 61 61 63 64 64 64 65 63 64 60 63 60 60 60 59 59 60 61 61 60 61 58 57 57 55 54 53 50
69 62 59 56 51 40 51 51 47 52 61 64 65 63 63 63 62 63 65 65 64 64 63 65 66 66 66 66 66 63 64 62 62 60 59 58 57 57 59 60 60 60 59 58 58 54 52 51 51
62 53 39 36 36 35 52 49 53 62 65 66 66 66 66 66 64 63 63 64 65 65 65 66 66 66 67 66 66 65 63 64 62 61 60 57 57 56 58 59 58 60 59 56 56 54 52 51 50
57 54 39 33 29 37 48 43 52 65 70 69 70 71 69 68 67 65 65 66 66 67 66 66 67 67 68 67 66 66 63 65 63 63 61 60 59 58 57 58 57 58 57 56 54 52 51 51 49
56 50 58 46 45 39 44 51 62 68 67 67 68 70 67 69 69 68 68 68 69 68 67 67 68 68 69 66 67 66 65 63 63 62 61 59 59 58 57 59 58 55 54 53 51 49 49 49 49
61 63 47 46 34 32 46 46 49 56 61 65 65 64 67 68 69 70 70 69 69 69 71 69 69 70 70 70 67 67 65 64 61 60 60 59 59 59 57 55 53 51 50 49 48 47 48 49 48
56 54 56 56 46 34 32 40 56 58 62 62 65 67 67 68 69 68 71 72 71 70 69 70 67 69 69 70 67 66 64 62 60 60 59 59 58 56 54 51 49 50 51 49 48 48 48 48 47
64 57 56 40 43 43 39 40 61 63 64 65 66 68 67 68 68 69 70 69 72 69 70 70 68 68 70 70 65 65 63 62 60 61 59 56 53 52 51 51 52 51 49 49 49 48 49 48 48

GFSSGP_sfc_temp_084.txt.gz
Temp
63 65 65 64 51 45 41 48 57 57 58 65 67 67 63 57 59 55 64 67 69 69 74 75 73 73 74 74 74 74 75 75 75 75 75 75 75 76 76 76 76 76 77 77 77 76 76 75 74
67 72 65 56 45 37 41 53 52 58 62 64 65 66 63 58 64 63 63 66 68 70 74 75 72 73 74 74 74 74 75 75 75 75 75 75 75 76 76 75 75 76 77 77 77 76 75 74 72
70 72 58 50 41 39 42 56 60 59 61 62 58 61 63 59 65 64 67 67 68 68 68 73 71 72 73 74 74 74 74 74 74 74 75 75 75 75 75 74 74 75 77 77 76 75 74 72 71
67 62 58 48 44 51 56 61 63 62 60 60 59 58 64 65 65 68 68 68 67 68 68 67 71 70 72 74 74 74 74 73 73 73 74 75 75 75 75 74 74 75 76 76 75 73 72 70 70
63 56 47 42 47 55 63 64 60 58 58 61 61 58 59 67 69 69 67 68 65 65 66 66 67 72 73 74 73 73 73 72 73 73 73 74 74 74 74 73 73 74 74 74 73 72 71 70 70
56 54 43 39 49 59 63 64 63 61 60 60 58 58 60 67 65 65 66 65 65 63 66 68 68 69 72 73 72 72 72 72 72 72 73 73 73 73 73 72 72 72 72 71 71 70 70 70 70
54 49 43 45 53 56 63 64 62 59 59 58 60 57 60 61 64 63 63 63 63 63 63 63 64 67 68 69 70 70 70 70 71 71 71 71 71 71 71 71 71 71 70 70 70 69 69 70 69
58 53 45 48 51 54 64 66 65 62 55 62 62 57 56 62 65 63 62 62 63 63 63 62 62 63 68 68 68 68 69 69 69 69 68 68 68 69 70 70 70 70 70 70 70 69 69 69 68
61 48 44 49 53 59 67 64 64 63 59 62 63 62 64 64 65 63 61 59 60 61 61 61 64 65 66 68 68 68 68 68 67 67 67 67 70 70 68 68 69 70 69 69 69 69 67 67 67
56 46 51 61 63 63 67 64 63 61 60 61 62 65 64 63 62 60 60 58 59 59 60 63 65 66 66 67 67 67 68 67 66 66 66 66 67 68 68 68 68 68 68 68 68 67 67 65 63
55 52 63 65 66 67 64 58 60 60 53 59 59 64 62 63 62 60 60 59 60 61 61 64 64 65 65 64 65 65 67 66 65 66 66 66 65 64 66 66 66 65 66 66 65 63 62 63 62
54 63 65 66 66 65 59 59 61 56 58 63 61 63 62 62 61 61 60 60 60 61 61 62 63 64 64 63 61 63 65 65 65 66 65 64 63 62 62 63 61 61 61 61 60 60 60 60 61
60 62 67 67 65 64 67 60 62 59 61 63 63 63 60 60 60 60 61 59 59 59 58 59 61 61 62 62 62 65 65 66 67 66 65 65 64 62 62 61 60 60 61 60 60 60 61 60 59
64 64 64 64 64 64 63 60 59 59 64 62 60 58 59 59 59 58 58 58 58 58 57 59 59 59 60 59 61 61 63 63 63 64 64 64 62 60 60 61 60 61 61 60 60 60 59 59 59
64 58 61 63 62 60 62 54 56 61 63 61 59 57 57 57 59 58 58 58 58 58 58 57 58 60 60 60 61 65 63 63 63 63 64 64 63 62 61 61 60 61 60 60 60 59 58 57 59
58 55 48 58 62 64 63 50 60 61 61 57 56 55 55 58 58 58 58 58 58 58 57 58 60 58 59 59 61 61 61 61 62 62 63 64 63 62 60 59 60 60 60 59 58 57 56 55 55
49 45 49 55 63 60 58 53 59 59 61 57 54 55 57 55 56 57 58 57 58 58 58 57 58 57 57 58 59 59 60 60 61 62 62 63 64 63 61 59 59 59 58 58 58 55 55 52 52
44 46 52 51 57 57 53 55 55 56 59 55 52 54 56 56 55 57 58 59 58 58 58 57 58 58 58 58 58 58 58 61 61 61 62 63 62 62 60 59 59 58 58 57 56 56 54 53 53
55 53 51 56 63 57 55 54 56 55 55 51 51 54 56 56 58 58 58 58 58 58 58 58 58 57 57 58 58 58 59 60 59 60 62 61 61 62 61 60 58 59 59 57 57 54 54 51 52
55 52 52 58 62 58 56 54 56 56 55 55 51 51 54 56 56 56 54 57 58 58 58 59 58 56 57 59 62 62 63 57 58 60 60 62 63 63 62 61 60 61 59 56 55 54 52 52 51
55 52 53 54 58 58 53 50 53 58 58 57 55 54 53 54 54 54 55 54 54 56 55 56 57 56 57 58 57 57 57 57 57 58 58 60 63 62 63 61 60 60 60 57 55 54 54 51 50
50 60 60 57 51 43 52 39 49 53 53 55 55 53 52 54 56 55 55 56 53 54 55 57 57 57 58 58 58 57 59 58 58 58 60 59 61 61 62 62 61 60 57 55 56 57 53 52 50
55 62 59 58 51 45 48 42 48 55 51 52 55 55 54 54 54 54 56 58 56 56 55 56 58 58 59 58 58 58 57 58 58 58 58 59 59 60 61 60 59 57 57 56 56 54 53 52 50
66 59 56 53 49 38 45 44 44 48 56 56 58 58 57 56 56 57 59 59 57 58 57 57 58 59 59 59 60 59 59 59 59 60 59 59 59 59 59 61 59 59 57 56 59 57 52 51 50
59 50 38 36 36 34 47 45 48 58 60 62 60 59 59 59 58 58 58 58 58 57 57 58 59 59 61 61 61 61 61 60 60 60 60 59 58 57 58 59 57 57 57 56 58 56 53 52 51
54 52 37 34 30 36 47 41 49 61 64 65 67 64 62 59 60 59 60 60 60 60 59 60 60 61 62 62 62 63 63 62 63 62 61 60 60 60 61 59 57 56 56 56 54 51 50 49 48
53 46 55 43 43 36 42 48 58 61 62 64 62 65 61 61 61 61 62 62 62 61 61 60 62 63 64 63 63 63 63 62 63 61 61 61 61 61 57 58 56 54 54 52 51 49 48 48 47
58 59 44 43 33 31 39 42 46 54 59 60 61 61 63 64 63 63 63 63 64 64 63 62 63 64 65 65 65 65 64 63 63 61 60 60 59 58 56 56 54 51 50 50 50 49 48 49 47
52 50 50 51 43 34 31 39 52 56 60 60 61 62 63 65 65 65 65 65 66 65 64 63 63 64 65 67 66 65 65 63 62 61 60 60 58 57 56 54 52 51 51 51 51 50 48 48 48
57 54 53 41 41 41 37 40 58 59 61 61 61 65 61 65 67 68 67 67 67 66 65 65 63 64 65 66 67 64 63 62 61 60 59 57 56 56 54 53 52 52 52 51 50 48 49 48 48

GFSSGP_sfc_temp_087.txt.gz
Temp
62 62 62 62 50 44 38 46 53 55 58 62 63 61 58 58 59 52 63 67 69 71 72 73 72 73 74 74 74 75 75 75 75 75 75 75 75 75 75 75 76 76 77 76 76 75 75 74 73
64 68 63 53 43 36 41 49 53 57 61 61 62 62 60 56 63 62 63 66 69 70 73 72 72 73 73 74 74 74 75 75 75 75 75 75 75 75 75 75 75 76 76 76 76 75 74 73 72
66 68 57 47 38 38 41 52 57 59 61 59 56 59 60 57 64 64 66 67 67 68 68 72 72 73 73 73 74 74 74 74 74 74 75 75 75 75 75 75 75 75 76 76 76 75 73 72 71
64 60 55 46 41 48 51 57 61 60 58 58 58 56 62 66 65 68 67 66 66 66 66 70 70 72 73 72 73 74 73 73 73 74 75 75 75 75 74 74 75 75 75 75 74 73 71 70 70
59 54 45 39 43 51 57 61 60 59 57 59 59 57 58 66 69 69 68 67 63 64 64 67 69 70 72 73 72 72 73 73 73 73 74 74 74 74 73 73 74 74 74 74 73 72 70 70 69
55 51 42 39 44 55 59 59 61 59 59 59 57 56 58 65 65 65 66 64 64 63 64 65 68 70 71 72 71 70 71 72 72 73 73 73 73 73 72 72 72 72 72 72 71 70 70 69 69
52 47 41 40 47 52 58 60 59 58 59 59 59 55 61 60 64 65 63 63 62 63 63 63 63 68 70 70 70 69 70 71 71 72 72 72 71 71 71 71 71 71 71 71 70 70 69 69 68
55 50 40 44 48 50 60 62 61 61 59 61 61 55 56 61 63 63 63 63 63 63 63 61 63 65 67 69 69 68 68 69 70 70 69 69 69 69 70 70 70 70 70 71 70 69 68 68 67
55 46 41 47 48 55 63 61 61 61 59 59 61 61 62 65 63 62 59 59 60 61 61 61 61 61 66 67 67 68 68 68 68 68 67 67 70 68 67 68 69 70 70 69 69 68 66 66 66
52 44 49 56 58 58 63 63 60 57 59 58 61 64 63 62 62 60 59 58 58 59 59 62 63 63 62 66 66 66 66 68 69 70 69 71 70 67 67 67 68 68 68 68 68 67 66 64 61
52 50 57 62 63 61 59 56 61 57 53 58 59 61 60 61 61 61 60 59 58 58 60 63 62 64 63 63 65 64 64 65 66 67 70 70 68 67 66 65 65 66 65 65 64 63 62 59 58
51 60 60 62 64 62 58 58 58 55 56 62 60 61 61 62 61 60 59 59 59 60 61 62 61 63 63 65 64 64 63 64 65 66 67 66 66 64 65 63 61 62 61 60 59 59 58 58 58
56 60 62 64 64 62 62 60 60 56 58 61 62 61 62 60 60 60 61 60 60 59 59 60 62 63 62 62 61 61 61 65 65 64 64 65 64 63 63 59 60 61 58 58 58 58 59 58 58
60 60 61 61 62 62 61 58 57 58 60 59 59 57 58 60 59 58 59 58 59 58 58 59 59 62 62 62 60 60 63 63 64 63 63 64 63 61 61 58 59 58 58 58 60 58 57 56 56
60 55 58 62 59 60 60 53 53 57 58 58 57 56 57 58 59 58 59 58 58 58 58 58 59 60 60 60 60 60 63 63 63 63 62 62 61 61 63 59 60 59 58 58 57 57 55 55 57
55 51 45 56 59 61 59 50 56 57 57 54 55 54 57 58 57 58 59 58 58 57 57 59 61 59 60 60 60 61 62 62 63 63 62 62 62 62 60 58 58 58 58 58 57 55 54 53 53
46 41 45 52 60 57 55 52 52 56 57 53 53 54 56 55 56 57 58 57 58 57 57 57 58 58 59 59 58 59 59 61 61 61 62 62 63 61 61 58 57 58 57 56 57 54 54 52 51
41 43 48 47 53 53 51 52 54 55 56 53 54 55 52 52 55 57 57 58 58 57 57 57 57 58 58 58 57 57 58 59 60 61 61 62 63 62 59 58 57 57 56 55 55 54 52 52 51
50 48 45 53 59 54 55 52 57 55 54 50 53 53 50 52 55 58 58 57 57 57 57 57 56 57 58 57 58 58 56 57 58 60 62 62 62 61 59 58 57 56 57 56 55 53 52 50 50
50 47 47 52 59 54 53 52 53 53 54 53 52 50 50 52 54 57 57 56 57 56 57 57 57 57 58 59 62 61 60 59 59 60 61 62 61 60 60 59 57 57 56 55 54 54 51 51 50
50 47 48 48 56 55 50 48 53 54 54 55 52 52 52 52 51 56 56 56 57 56 57 58 57 57 59 61 62 60 59 57 57 59 59 60 61 61 61 60 59 58 58 56 54 53 54 50 48
46 55 55 52 47 42 49 37 47 51 50 52 52 50 50 52 54 56 55 55 55 57 56 56 56 56 55 56 57 57 58 58 61 56 59 57 59 60 61 61 59 58 56 54 55 55 52 52 50
52 58 54 52 48 42 44 40 45 49 48 50 52 51 51 52 53 53 53 54 54 56 54 54 55 56 57 55 55 55 55 55 55 56 57 57 58 61 62 61 59 58 57 57 55 53 54 55 53
61 54 52 48 45 36 44 42 41 45 52 53 55 55 54 53 53 54 54 55 53 53 53 53 54 55 56 56 55 54 55 55 55 56 55 56 57 58 59 59 58 59 57 55 54 54 55 55 53
53 46 35 33 34 33 45 41 45 54 57 59 57 57 56 55 54 53 53 53 54 52 53 54 55 55 57 56 57 57 56 56 57 58 58 57 57 56 57 57 56 57 57 55 55 55 55 53 51
48 48 36 32 29 35 44 38 47 57 61 60 62 61 59 56 56 55 55 55 55 55 54 55 55 56 57 57 57 58 58 59 59 59 59 59 59 60 59 58 59 57 55 54 53 52 51 51 49
49 44 53 41 38 34 39 45 54 58 59 59 58 58 56 57 56 57 58 57 56 57 56 55 57 57 58 58 58 58 58 59 60 59 60 60 61 61 60 58 58 56 55 54 52 50 50 50 49
55 56 42 40 32 30 36 39 43 52 55 57 55 57 58 58 58 59 59 59 59 59 58 57 58 59 60 60 60 60 60 60 61 61 60 60 61 60 58 56 56 54 53 52 51 50 50 50 49
48 49 47 47 39 35 30 36 51 53 56 57 57 58 59 59 59 60 61 62 62 60 60 58 58 59 60 62 62 61 61 61 61 61 61 60 60 57 56 56 55 53 52 51 52 51 50 50 48
54 53 51 39 38 38 35 39 56 55 56 59 58 61 57 60 62 62 62 62 62 61 61 60 59 59 61 63 63 62 62 62 61 60 61 59 57 57 56 55 54 52 52 52 51 50 50 50 48

GFSSGP_sfc_temp_090.txt.gz
Temp
61 61 61 61 50 44 38 44 50 52 54 57 59 58 54 55 57 51 63 65 68 71 71 72 72 73 74 74 75 75 75 76 75 75 75 75 75 75 75 75 76 76 77 76 76 75 75 74 72
62 65 61 52 43 36 41 46 50 56 60 60 60 59 58 58 61 61 62 66 68 72 71 72 72 73 74 74 75 75 75 75 75 75 75 75 75 75 75 75 75 75 76 76 76 75 74 73 71
64 65 56 45 36 38 41 50 55 57 60 58 55 58 58 58 63 64 66 66 67 68 71 71 72 72 73 73 74 74 75 74 74 74 75 75 75 75 75 75 74 75 76 77 76 75 73 72 70
62 59 53 45 39 47 49 55 57 57 55 56 55 55 61 65 63 66 66 67 66 66 67 70 71 72 73 73 74 74 73 73 73 74 74 75 75 75 75 74 74 75 76 76 75 74 72 70 69
57 52 43 38 41 49 53 57 57 55 55 57 57 56 57 64 68 67 65 66 64 63 66 70 70 72 73 74 74 73 73 73 73 74 74 74 75 74 74 74 74 74 74 74 73 72 70 69 69
53 50 41 37 43 52 55 57 59 58 58 56 55 56 57 63 63 64 63 64 64 63 63 65 69 70 71 73 73 72 72 72 72 73 73 74 73 73 73 73 73 73 72 71 71 70 70 69 68
52 45 39 38 45 50 55 56 57 55 56 58 58 54 57 59 62 62 64 63 62 62 62 64 65 69 70 70 70 70 70 71 71 72 72 72 71 71 72 72 71 71 71 70 70 69 69 68 68
52 49 38 41 44 48 56 59 59 59 58 58 60 54 55 58 62 64 63 63 62 63 62 61 63 64 66 66 68 69 69 69 70 70 70 69 69 70 70 70 70 71 70 70 70 69 68 68 67
52 45 40 44 46 53 59 58 58 59 57 57 59 59 61 62 63 61 61 61 61 62 62 61 61 62 64 66 68 68 69 70 70 67 68 67 68 67 67 69 70 70 69 69 69 68 67 66 65
51 42 47 54 55 56 61 59 59 57 57 57 59 62 61 61 61 60 58 56 58 60 60 61 62 62 62 66 67 67 68 67 68 69 68 70 67 65 66 68 69 69 68 68 67 66 66 64 61
50 48 53 59 59 58 56 56 59 55 52 57 57 60 58 59 62 60 61 60 58 58 61 63 63 63 62 63 65 65 65 63 64 66 68 71 67 64 64 64 65 65 66 65 64 62 61 59 57
48 56 57 60 60 58 55 54 56 54 58 60 60 59 59 59 60 59 59 60 57 58 60 62 62 62 63 63 65 64 62 62 63 65 67 68 67 62 62 63 60 63 61 59 59 57 57 56 56
52 56 58 62 60 58 59 58 57 54 57 59 59 60 59 59 57 59 59 61 60 59 59 61 62 62 62 63 63 63 62 62 64 64 67 68 66 63 62 59 59 60 57 59 57 58 57 55 56
57 57 58 58 59 59 58 55 54 57 58 58 58 57 61 58 59 59 59 59 59 59 58 60 61 61 61 62 62 62 62 64 64 64 64 66 64 62 61 61 61 60 59 58 59 58 56 54 55
57 52 54 56 55 56 57 51 52 57 57 56 56 55 59 59 60 59 60 59 59 58 59 59 59 60 61 60 61 61 61 64 64 63 62 61 61 61 61 61 61 60 58 57 58 55 54 53 55
51 49 43 52 55 58 58 48 55 54 55 53 54 57 57 57 59 59 59 59 58 57 58 59 61 59 59 59 59 60 61 62 62 62 61 61 61 61 58 58 60 59 58 58 56 55 53 52 53
44 39 41 49 55 53 52 50 54 52 54 52 52 55 57 55 56 58 59 58 58 57 58 57 58 58 59 59 59 60 61 61 61 60 61 61 62 60 60 58 59 59 58 57 57 53 53 52 52
40 40 44 44 50 53 47 50 58 55 52 52 51 54 55 54 55 57 57 58 57 57 57 57 58 58 58 59 59 58 59 60 61 61 61 62 61 61 59 57 58 58 56 54 54 53 52 52 52
47 45 43 47 54 50 50 49 55 54 50 50 50 53 52 50 57 58 57 57 57 56 56 56 57 57 59 58 58 57 58 57 57 62 62 62 62 62 60 58 57 56 57 56 54 52 53 51 51
48 45 44 49 55 52 50 50 55 52 52 52 51 49 49 50 54 56 56 56 56 56 57 57 57 57 60 59 59 57 58 58 58 59 61 61 61 62 61 60 57 57 55 54 53 53 51 51 50
47 46 44 46 51 51 46 45 51 52 52 53 51 51 51 50 51 56 55 55 56 55 56 57 57 57 58 59 58 58 58 57 58 58 58 60 61 60 61 59 58 56 56 55 53 52 53 50 48
44 52 51 49 43 37 46 34 45 50 51 51 51 49 50 50 52 54 57 55 55 56 58 58 58 57 59 59 58 58 59 58 62 58 59 59 60 59 59 59 58 57 56 54 54 53 53 52 50
49 54 50 49 43 39 42 37 43 47 50 52 51 51 50 51 52 52 57 57 57 57 57 58 57 58 59 58 58 57 57 59 56 57 58 57 58 59 59 59 58 56 58 57 55 54 52 52 52
57 51 49 45 42 32 42 40 39 44 50 53 53 52 53 50 51 52 55 57 57 58 56 54 56 55 55 55 54 55 55 53 54 54 54 54 55 56 57 59 59 59 57 56 55 54 53 53 52
50 45 33 31 31 32 43 39 44 52 55 56 58 54 53 53 51 51 51 52 54 55 56 55 55 54 55 54 54 54 54 54 56 56 57 54 55 55 56 56 56 56 56 56 55 54 54 53 52
48 46 33 30 29 34 42 36 45 55 58 58 59 57 54 52 53 52 52 52 53 54 54 54 54 53 54 54 54 55 55 55 56 56 57 57 58 58 57 56 57 57 57 56 55 55 54 53 52
47 41 50 38 36 32 37 42 52 55 58 57 57 54 52 53 53 54 54 54 54 53 53 53 53 54 55 55 55 54 54 55 56 55 55 57 56 58 56 56 57 57 57 56 54 54 52 51 51
52 53 41 37 30 29 34 36 41 50 54 56 56 53 53 53 54 55 55 55 56 56 55 54 55 55 56 56 56 56 55 55 56 55 55 57 57 56 57 56 57 56 54 53 53 52 52 51 51
45 46 44 45 38 32 30 35 48 53 56 55 57 56 54 54 54 56 57 58 58 57 56 55 55 56 56 57 56 56 56 56 56 56 57 57 57 58 57 58 57 55 53 52 52 51 51 51 50
49 47 49 39 35 34 34 40 52 54 54 56 57 59 56 56 55 56 56 57 58 57 56 56 56 56 58 59 60 58 57 57 57 57 58 58 58 58 58 57 56 56 54 52 52 52 52 50 50

GFSSGP_sfc_temp_093.txt.gz
Temp
70 72 74 74 65 62 57 59 61 62 64 69 67 65 66 66 65 62 73 74 74 76 78 77 73 74 74 75 75 76 76 76 76 76 75 75 75 75 76 76 76 76 77 77 76 76 75 74 73
72 73 73 66 61 57 59 59 60 66 70 67 66 66 64 65 68 69 71 73 74 77 78 78 72 73 74 74 75 75 76 76 76 75 75 75 75 75 76 75 75 76 76 76 76 75 74 73 72
74 73 71 62 55 57 58 61 66 67 69 66 66 67 67 67 69 70 72 72 73 76 77 77 72 73 73 74 75 75 75 75 75 75 75 75 75 75 75 75 75 75 76 76 76 75 73 71 70
74 73 65 61 55 59 61 67 65 65 66 65 65 64 69 73 71 71 72 72 72 70 75 73 71 72 73 74 74 75 74 74 74 74 74 75 75 75 75 74 75 75 76 76 75 73 71 70 69
70 68 60 56 55 60 63 65 65 65 65 64 64 65 66 71 73 71 69 72 71 70 67 70 70 72 73 74 74 74 73 73 73 73 74 74 75 74 74 74 74 75 75 75 73 72 70 69 69
67 65 57 55 56 61 65 66 66 64 65 64 62 63 67 69 70 67 68 70 71 70 67 65 70 72 73 73 73 72 72 72 73 73 73 74 73 73 73 73 73 73 73 72 71 70 69 69 68
65 62 56 54 56 58 64 67 65 67 66 65 67 62 69 67 67 66 67 68 68 69 67 65 66 68 69 68 70 71 71 71 72 72 72 72 72 72 72 72 72 72 71 71 70 69 69 68 68
65 64 53 55 56 59 67 67 68 67 69 65 69 65 66 66 66 67 66 65 66 65 67 66 66 66 69 68 70 69 70 70 71 71 70 70 70 71 71 70 71 70 70 70 70 69 68 67 67
66 60 55 57 55 63 67 65 67 68 66 64 66 66 68 66 66 66 66 65 66 65 64 65 65 69 71 69 71 67 69 70 69 70 69 69 75 75 74 72 69 70 69 69 69 68 67 66 66
65 58 58 63 64 65 68 64 67 65 63 65 65 68 66 65 64 64 64 64 64 64 64 64 67 66 65 66 68 67 72 74 73 73 72 74 73 75 75 71 69 69 69 69 68 67 66 69 73
61 60 61 65 67 67 66 66 68 65 65 68 69 68 64 62 64 64 64 64 62 65 65 65 66 66 65 64 65 65 64 68 68 73 70 70 71 72 75 74 73 72 70 73 72 70 73 71 72
59 63 64 68 67 65 65 68 65 65 72 67 69 67 64 64 64 64 64 64 62 61 65 64 65 64 66 64 65 64 64 64 68 71 70 66 68 71 72 73 72 71 73 72 71 70 69 68 69
59 63 65 67 66 66 66 66 66 65 69 67 66 64 64 65 64 64 64 63 62 62 62 64 64 64 64 63 63 64 64 64 66 67 69 67 69 69 72 70 72 71 70 69 70 70 69 68 67
64 63 66 66 66 66 65 66 63 71 67 63 62 62 64 63 64 64 65 62 61 61 61 62 62 63 62 62 63 64 64 66 64 65 66 68 70 68 70 69 70 69 71 71 70 69 69 68 68
64 59 62 63 66 64 66 60 60 69 64 62 60 59 62 63 64 65 64 61 61 60 60 60 62 62 60 61 63 63 63 63 65 65 66 67 68 68 69 68 68 70 68 66 68 67 67 67 68
59 57 54 60 63 65 64 59 66 65 63 63 62 60 61 62 63 65 62 60 61 59 59 60 62 60 60 60 62 62 62 63 64 64 64 65 67 68 67 68 69 69 67 68 66 66 66 66 67
53 51 51 57 63 63 62 60 66 61 62 63 61 61 61 61 60 63 62 60 60 60 59 58 61 59 58 59 61 62 62 62 63 63 62 63 66 67 66 67 67 67 67 65 66 65 66 64 67
49 49 49 53 60 60 59 60 66 65 62 63 62 61 60 60 60 62 60 60 59 59 58 58 58 60 59 60 59 61 61 61 62 62 62 64 65 66 65 65 66 67 67 65 66 64 65 66 65
54 52 51 55 60 58 59 58 63 68 62 60 60 60 59 59 62 62 60 59 58 58 58 58 57 58 58 58 58 59 59 59 60 61 62 64 65 65 64 66 65 66 66 66 64 64 62 62 63
55 52 51 56 60 57 58 58 65 65 65 64 61 60 61 59 59 60 59 58 57 57 59 58 58 57 59 61 59 59 60 60 60 62 63 63 64 64 63 65 64 66 65 64 63 63 59 61 61
52 50 51 51 56 58 56 55 60 64 62 61 60 62 62 59 58 60 58 57 57 57 58 58 58 58 59 60 59 57 57 57 61 62 62 66 66 62 63 65 64 63 65 64 62 61 62 60 60
48 56 55 53 51 46 56 45 55 63 64 63 60 58 59 59 60 61 61 58 57 58 59 59 59 58 58 60 61 59 58 58 61 63 63 62 64 62 62 63 64 64 64 63 63 62 61 63 61
52 57 55 54 49 49 51 47 54 56 59 64 67 59 59 60 60 60 62 62 60 60 59 59 59 59 60 61 60 61 59 61 58 60 63 60 60 60 60 62 62 64 65 64 62 61 61 61 62
59 55 54 51 49 40 47 49 51 55 60 65 66 63 60 59 60 61 63 63 61 60 60 59 58 58 58 58 61 62 60 60 61 60 59 60 61 61 62 62 62 65 66 64 62 61 60 60 59
55 51 41 38 37 39 49 46 53 59 64 65 67 68 60 61 60 60 60 60 59 58 59 59 59 58 58 58 59 60 61 62 63 64 64 61 62 64 64 65 65 66 65 65 65 63 61 60 60
50 50 42 34 36 42 46 43 53 63 67 66 66 67 63 60 60 61 61 60 59 58 59 59 59 60 60 59 60 61 62 63 64 65 66 65 66 66 66 65 66 66 66 65 64 63 62 61 57
50 45 55 45 42 40 46 49 58 63 64 64 67 65 64 60 60 62 61 60 60 57 57 57 58 59 60 60 60 60 61 62 63 64 64 64 65 66 65 66 65 66 65 65 64 63 63 62 60
55 56 43 44 35 35 42 44 50 57 63 66 66 66 64 61 60 62 62 61 61 60 58 57 58 57 59 61 61 61 61 62 63 62 62 63 64 65 65 65 65 65 65 64 63 62 63 59 59
50 49 50 49 43 39 37 44 56 59 65 63 67 65 65 63 62 62 63 63 63 62 60 58 57 59 60 61 61 61 61 61 62 62 62 63 64 65 64 65 65 64 64 62 60 59 59 54 54
55 50 51 42 41 42 42 46 60 61 63 62 65 66 66 66 64 63 64 63 62 62 61 61 60 60 61 62 62 61 61 60 61 61 62 63 63 64 64 64 65 64 62 58 55 54 55 53 53

GFSSGP_sfc_temp_096.txt.gz
Temp
76 87 91 86 73 74 70 69 75 73 73 80 79 76 77 78 74 69 83 84 82 86 88 83 73 74 75 76 75 75 76 76 76 76 76 76 76 76 76 76 76 76 77 77 77 76 75 74 73
88 85 87 85 70 66 70 73 70 76 78 79 78 77 74 73 81 81 81 81 82 84 87 87 72 73 75 75 75 75 76 76 76 76 76 76 76 76 76 76 75 76 76 76 76 75 74 73 72
86 86 82 78 73 67 70 73 76 78 79 76 76 79 78 77 80 83 82 81 82 83 85 86 72 72 74 75 75 75 75 75 75 75 75 75 75 76 76 75 75 75 76 76 76 74 73 71 70
87 86 83 71 68 71 72 77 76 76 78 78 77 74 81 86 81 83 82 81 82 82 81 80 71 72 73 75 75 75 75 74 74 74 75 75 75 75 75 74 74 75 76 76 74 73 71 70 69
89 84 72 69 69 72 76 77 77 76 76 76 76 75 76 82 86 82 80 81 79 81 76 67 68 71 73 74 75 74 74 74 74 74 74 75 75 74 74 74 74 74 74 74 73 71 70 69 68
80 81 68 67 69 73 76 78 76 76 77 78 73 75 79 81 80 82 78 78 79 78 73 70 68 67 70 73 74 73 73 73 73 73 74 74 74 73 73 73 73 73 73 72 71 70 69 68 68
76 74 69 70 69 70 74 79 75 78 78 77 79 72 83 80 81 78 76 77 74 73 72 69 66 65 66 70 71 70 72 72 72 72 72 72 72 72 72 73 73 72 72 71 70 69 68 68 67
80 76 68 70 69 70 77 77 79 78 78 77 79 74 77 81 78 77 76 74 67 72 72 68 66 64 63 69 67 67 70 70 70 71 71 70 71 71 71 71 71 71 71 70 69 68 68 67 67
81 70 68 70 69 72 79 73 80 81 78 78 80 80 81 78 77 77 78 75 70 66 69 68 66 65 64 71 71 69 67 69 70 70 69 69 77 76 76 74 70 70 70 69 69 68 67 66 66
74 70 72 77 77 74 77 75 77 76 78 77 79 83 79 77 77 76 75 74 74 70 65 68 67 68 69 71 74 72 67 71 74 72 75 80 77 78 80 72 68 69 69 68 68 67 66 69 77
74 69 77 76 78 78 77 77 81 77 75 80 80 83 81 76 75 74 73 73 73 74 71 66 70 67 70 71 74 68 67 69 70 71 74 76 79 78 78 76 76 75 71 76 74 72 78 79 79
68 74 77 78 80 76 75 80 77 79 79 86 83 83 78 76 75 74 72 72 73 72 71 69 68 71 70 70 68 67 67 69 68 70 72 75 76 76 76 79 79 78 79 77 77 78 79 78 78
68 74 77 79 77 77 77 75 76 78 84 86 82 75 76 75 75 73 70 68 71 69 68 69 70 70 67 70 68 66 68 65 68 68 71 74 75 71 76 79 80 80 81 79 78 79 77 76 76
75 74 75 77 77 77 73 75 78 79 85 78 75 75 75 74 73 73 72 69 63 65 67 69 70 69 69 67 68 65 65 66 67 68 68 70 71 70 73 77 79 80 81 81 79 78 77 77 76
73 67 72 74 76 74 78 70 73 81 80 77 75 75 75 74 74 73 74 70 69 65 66 66 65 69 66 66 65 65 64 65 66 66 67 67 68 69 71 75 77 79 80 77 78 77 77 77 77
66 68 62 72 74 75 73 66 76 79 77 78 78 76 73 72 73 73 73 70 68 63 61 63 64 66 65 62 62 63 64 65 65 66 66 66 68 70 73 76 76 78 77 77 76 76 75 75 76
65 58 63 66 74 74 70 69 77 78 76 76 78 78 76 74 71 71 72 69 65 66 62 61 65 63 60 60 62 63 63 64 65 65 65 65 67 69 75 75 75 75 75 74 74 74 74 73 74
58 59 62 61 71 69 70 69 77 80 77 77 79 79 77 75 74 72 71 68 65 64 62 61 64 62 61 61 61 61 62 63 63 63 64 64 65 69 72 73 73 74 74 73 74 73 74 74 74
65 61 61 67 70 65 67 69 74 79 80 78 78 78 77 75 76 73 70 68 62 63 62 59 60 61 61 60 59 59 59 61 61 62 62 63 66 69 71 73 72 74 73 73 72 72 70 71 71
62 58 59 66 70 66 66 67 73 77 78 79 79 78 77 76 73 70 68 67 63 63 63 60 59 61 61 61 59 60 61 60 61 61 62 63 65 70 70 72 71 73 73 71 70 70 69 68 67
59 57 58 59 67 68 65 63 68 76 77 77 77 79 79 77 73 70 66 62 62 61 64 63 63 59 61 61 59 58 59 60 60 60 61 62 64 69 70 73 72 73 73 70 69 68 68 66 64
52 63 61 60 59 54 64 52 64 72 73 77 79 77 77 77 75 73 70 65 60 62 67 66 65 61 62 62 62 59 59 58 62 62 64 63 63 64 68 72 72 71 72 70 69 69 69 69 65
56 63 62 60 58 58 59 55 60 70 67 73 78 80 77 76 75 73 72 69 63 63 63 64 66 60 61 63 62 60 60 61 60 62 68 65 64 65 64 65 65 68 70 69 69 68 68 70 69
64 59 60 60 58 47 55 56 59 66 69 72 76 77 77 76 75 75 75 73 70 65 65 63 64 62 61 65 66 63 64 60 59 60 62 67 65 69 67 66 65 67 70 70 70 70 68 67 67
58 54 45 44 44 44 59 54 59 69 73 75 76 79 77 76 74 73 73 72 71 66 65 64 64 61 64 66 65 63 65 65 62 63 63 69 67 64 64 66 64 67 70 72 71 70 69 69 66
53 54 45 38 43 49 57 50 61 72 77 79 77 78 78 75 74 74 74 73 71 68 65 64 64 63 62 61 62 66 69 65 67 69 70 68 69 70 71 70 70 67 67 70 70 70 70 70 68
56 49 59 50 53 46 55 59 66 71 72 75 77 77 77 76 75 75 75 74 73 69 67 65 66 64 64 64 64 64 68 67 68 70 70 71 71 72 71 71 71 72 72 71 71 70 70 70 68
60 64 48 51 39 39 51 54 57 64 67 74 75 77 78 78 76 76 76 74 74 72 70 67 69 68 68 67 67 67 68 69 70 70 70 70 72 72 72 71 71 71 71 71 70 70 71 69 69
55 53 54 56 53 43 43 53 67 67 69 72 76 77 77 77 76 76 77 76 74 72 71 65 65 68 69 70 69 68 68 69 69 69 70 70 70 71 70 70 70 70 71 71 70 70 70 68 68
57 56 56 47 46 51 50 52 71 71 72 74 75 76 77 77 77 77 76 76 74 72 71 66 61 64 67 69 70 69 69 69 68 68 69 70 70 70 70 70 70 71 72 72 71 68 68 65 65

GFSSGP_sfc_temp_099.txt.gz
Temp
78 88 95 90 75 77 74 75 81 78 78 85 85 81 80 82 76 70 89 90 88 91 93 84 74 74 75 75 75 75 75 76 76 75 75 75 75 75 76 76 76 76 77 77 76 76 75 74 73
94 94 92 85 72 71 77 80 76 80 83 84 84 83 81 78 87 87 89 87 87 89 91 90 73 74 75 75 75 75 76 76 75 75 75 76 75 76 76 76 75 76 77 77 76 76 74 73 72
89 94 83 79 75 71 74 79 80 82 84 82 81 86 82 81 87 89 89 86 87 88 90 91 73 73 74 75 75 75 75 75 75 75 75 76 76 76 76 75 75 76 76 76 76 75 73 71 70
91 89 86 73 72 79 77 81 81 80 84 85 84 78 89 92 89 90 88 87 87 88 89 74 71 72 73 74 75 75 75 74 74 74 75 75 75 75 75 74 75 75 76 76 74 73 71 70 69
91 87 75 73 74 80 82 84 83 80 82 81 84 78 83 91 92 89 86 86 84 86 86 78 69 71 73 75 74 74 74 74 74 74 75 75 75 75 74 74 74 74 74 74 73 71 70 69 69
82 85 72 71 77 81 82 84 81 80 82 83 80 80 83 91 88 89 84 84 84 82 81 77 70 70 68 67 67 73 73 72 73 73 74 74 74 73 73 73 73 73 73 71 71 70 69 68 69
78 78 72 75 75 78 80 86 80 81 82 81 87 77 85 91 88 85 83 84 81 79 77 77 74 73 69 68 65 67 71 72 72 72 73 73 72 72 73 72 73 72 71 70 69 69 68 68 68
84 80 73 76 74 75 84 83 83 82 81 89 87 77 79 84 84 84 82 79 76 76 75 75 73 71 70 67 64 64 69 70 71 71 71 70 71 71 71 71 71 71 70 69 69 68 67 67 67
87 72 70 74 76 78 85 78 86 88 83 86 88 85 88 88 85 83 82 80 75 73 74 75 72 70 66 67 66 66 68 71 70 70 69 69 76 75 75 74 70 70 69 69 68 67 67 66 66
78 72 73 84 83 80 82 81 82 82 81 82 85 90 91 86 84 82 81 80 79 72 72 74 71 68 65 68 64 66 66 67 73 76 74 79 76 77 81 72 69 69 69 68 67 67 66 69 75
79 71 80 83 84 84 82 82 86 81 78 83 83 86 88 86 83 81 80 80 79 79 71 72 72 70 68 71 69 71 67 64 68 74 76 76 78 75 76 74 73 73 71 74 72 70 75 78 78
73 79 81 82 85 82 80 84 81 83 83 89 89 90 86 84 82 81 79 78 80 76 75 73 74 72 72 70 71 72 73 64 67 73 75 77 76 73 75 76 77 75 77 75 75 76 78 78 79
76 78 80 83 83 82 83 79 79 81 87 90 90 88 84 83 83 82 78 76 76 73 73 71 73 73 72 71 70 72 73 70 67 69 77 75 74 70 71 77 78 78 79 77 76 78 79 79 78
80 80 79 80 81 82 78 78 81 82 88 86 86 84 84 82 82 80 78 77 76 74 73 73 71 72 73 73 72 70 67 67 67 67 72 75 75 72 72 75 79 80 81 80 79 80 79 78 78
78 71 76 77 79 78 82 74 76 86 88 85 83 84 83 83 83 81 81 79 77 74 73 72 73 72 72 71 71 71 69 69 68 66 68 73 70 74 73 74 79 80 81 80 80 79 79 78 78
69 71 63 75 79 81 79 67 80 86 84 82 84 85 83 82 82 82 81 79 77 72 70 70 69 70 70 70 71 68 66 69 66 66 66 66 67 73 72 70 71 78 77 80 80 78 77 76 77
66 60 65 70 80 78 75 69 82 86 83 81 84 85 85 83 80 81 80 78 74 71 68 63 64 68 68 66 66 69 66 66 66 65 65 66 65 66 67 67 70 76 78 78 78 77 76 75 76
57 62 66 66 76 77 72 72 79 84 84 82 84 85 86 85 83 81 80 78 72 70 67 65 62 66 64 63 64 63 63 64 65 65 64 65 65 65 67 68 69 78 77 76 76 73 76 76 76
64 65 67 71 78 73 71 72 76 82 83 82 84 85 85 84 86 83 79 76 72 66 66 62 64 63 63 61 62 61 60 62 63 65 64 64 64 66 67 71 72 74 75 71 69 74 73 74 75
61 61 62 69 74 72 70 70 75 79 81 83 83 84 85 86 83 79 76 74 69 66 66 60 62 63 63 63 61 60 60 62 63 63 63 63 63 64 64 67 70 71 71 69 71 72 71 73 73
62 59 61 62 69 73 69 65 69 77 81 82 84 85 86 85 83 78 75 73 71 66 66 65 63 64 62 61 61 60 60 60 60 60 61 61 62 63 65 67 69 70 71 70 70 71 71 68 69
56 65 63 62 61 56 70 54 68 75 77 80 82 83 84 85 85 82 77 73 71 68 69 70 66 65 62 62 61 60 58 57 59 59 60 61 62 64 66 68 69 69 73 69 69 71 70 71 66
59 66 62 62 60 60 61 57 64 73 71 76 81 83 85 85 84 81 79 76 74 71 67 66 66 65 64 62 64 60 59 59 59 60 59 60 61 64 67 70 71 71 71 72 71 69 68 69 69
65 62 61 61 59 49 58 58 61 67 72 76 81 83 84 85 83 83 81 79 74 69 67 66 64 64 63 62 63 62 60 60 59 59 59 59 60 61 63 67 69 70 71 69 68 68 68 69 70
60 55 44 44 46 45 61 58 62 71 77 78 79 81 82 83 82 81 79 77 74 69 66 67 65 62 63 63 62 62 61 61 60 62 62 62 62 61 61 62 63 66 69 70 69 66 67 68 67
57 53 44 37 42 47 62 54 63 75 79 82 83 82 84 83 82 81 80 78 77 72 70 67 66 64 64 64 65 66 66 66 62 65 65 63 65 68 64 64 65 66 67 66 68 69 68 68 66
57 51 61 49 52 45 51 61 70 73 73 78 80 81 82 82 82 81 81 79 78 74 72 70 70 69 67 66 68 68 68 68 67 64 65 67 69 70 68 68 68 69 67 68 66 69 69 68 68
58 64 50 53 38 38 51 55 57 66 67 75 78 79 82 84 82 82 82 79 79 76 74 71 73 72 71 68 67 68 70 70 70 70 69 69 70 71 71 69 69 70 70 70 70 70 70 68 67
53 51 55 57 54 43 41 50 68 71 70 72 78 80 82 83 83 82 83 82 80 78 76 72 73 73 72 71 69 68 70 71 71 71 71 71 72 72 72 71 71 71 71 71 71 70 70 69 69
60 58 57 46 45 51 50 52 72 73 73 72 76 80 82 83 84 84 83 82 80 78 76 73 73 74 74 73 71 70 70 70 70 70 71 72 72 72 72 72 72 72 72 72 71 70 71 70 69

GFSSGP_sfc_temp_102.txt.gz
Temp
75 82 86 84 69 71 67 74 82 77 79 85 85 81 78 80 75 66 87 87 88 87 82 79 74 75 75 75 75 75 75 76 76 75 75 75 75 75 75 76 76 77 77 77 77 76 76 75 74
86 90 89 80 65 62 69 80 76 80 83 84 84 82 80 76 87 86 83 86 87 89 82 82 73 74 75 75 74 75 75 76 75 75 75 75 75 75 75 75 75 76 76 77 76 76 75 73 73
80 89 79 73 69 64 69 80 80 84 85 82 80 86 83 80 86 85 86 86 88 87 89 84 73 73 74 74 74 74 75 75 75 75 75 75 75 75 75 75 75 75 76 77 76 75 73 72 71
85 85 81 68 66 75 78 81 83 81 84 86 83 77 87 92 89 88 88 88 87 87 82 71 71 73 74 73 74 74 74 74 74 74 73 74 75 75 75 74 75 75 76 76 75 73 71 70 69
87 82 69 67 70 78 84 84 84 79 81 82 84 78 80 90 89 88 87 87 84 85 83 76 70 70 73 75 75 74 74 73 73 74 74 75 74 74 74 74 74 74 74 74 72 71 70 69 69
77 80 65 64 72 81 85 85 83 80 81 82 81 79 81 89 88 87 84 84 84 82 80 76 71 71 71 73 74 73 73 73 73 73 74 73 71 71 73 73 73 73 72 71 70 69 69 69 69
73 72 67 69 71 75 82 87 81 80 80 80 86 76 83 85 85 84 83 83 81 78 77 76 74 73 69 67 68 67 66 64 72 72 71 69 70 71 72 72 72 71 71 70 69 69 68 69 68
79 75 68 71 70 72 84 86 84 80 79 90 88 75 76 80 83 82 80 79 76 75 74 74 73 72 70 70 66 66 67 65 64 71 71 71 70 71 71 71 71 70 69 69 69 68 68 68 67
85 69 65 69 72 77 86 81 86 88 83 84 86 85 88 88 84 81 78 77 74 73 74 72 71 71 69 68 66 66 67 66 60 70 70 68 71 72 71 71 69 69 69 68 68 67 66 66 67
76 68 68 78 81 79 82 81 83 82 80 81 83 89 90 86 83 80 78 77 75 73 71 73 71 70 68 66 64 64 64 63 61 71 69 71 71 72 74 69 68 68 68 68 67 66 66 68 65
76 69 75 79 82 83 81 80 84 81 76 82 81 85 88 84 82 80 80 80 78 78 73 72 71 69 66 65 64 64 63 62 64 69 68 70 72 71 69 68 68 67 67 67 66 65 67 67 66
71 77 78 80 82 81 78 82 79 81 81 87 88 88 88 85 83 80 79 78 78 74 70 72 71 68 66 67 64 64 63 62 63 69 70 71 71 69 68 68 68 67 67 66 65 66 67 67 68
73 76 80 81 82 81 82 78 78 79 85 88 89 87 84 83 83 83 80 79 77 74 72 70 71 68 68 67 66 65 64 62 63 65 69 72 71 68 68 68 69 69 69 68 67 67 69 69 68
76 77 78 80 80 80 76 77 79 80 86 85 85 84 84 83 82 81 77 75 75 75 71 70 70 70 69 67 67 66 65 64 64 66 68 70 71 68 69 69 70 70 70 70 69 69 71 68 68
75 68 73 75 77 76 79 71 73 82 85 84 84 85 84 84 84 82 80 79 77 74 72 69 70 71 69 68 67 67 67 66 66 65 66 68 70 68 69 70 68 71 71 69 70 70 68 67 69
67 67 60 71 75 77 76 64 76 84 84 82 83 83 84 83 84 84 82 81 79 73 70 70 69 69 69 68 67 66 67 67 66 66 66 66 67 69 69 70 70 73 71 71 71 70 66 65 65
62 55 58 64 75 76 75 68 78 84 83 80 81 83 84 82 81 82 82 79 77 72 70 66 67 66 67 67 66 66 67 66 66 66 66 66 66 64 68 70 66 70 72 71 69 66 65 63 64
54 56 60 59 68 72 72 71 76 80 81 80 80 82 83 84 80 81 80 78 73 70 67 65 65 66 66 63 64 64 65 65 66 66 65 64 64 64 64 66 67 66 67 68 69 67 66 64 64
62 59 57 60 66 65 69 71 74 79 80 78 80 82 82 83 85 80 78 75 71 67 65 64 64 64 63 61 61 61 61 62 64 65 65 64 64 64 63 66 65 66 67 64 67 65 64 63 65
62 57 55 61 65 64 66 67 74 76 78 78 79 81 82 84 82 77 75 73 67 65 65 64 64 63 64 63 62 61 61 62 63 64 64 65 63 64 63 65 64 66 65 65 65 64 62 63 64
60 57 55 53 60 64 63 62 68 75 77 80 81 83 84 83 79 75 73 71 66 64 64 64 65 63 63 64 62 60 61 61 61 62 62 64 64 64 63 64 64 64 65 63 63 63 63 61 61
52 62 61 59 55 47 62 49 63 70 73 77 79 80 81 82 84 77 74 71 66 64 65 67 64 62 63 64 63 60 58 58 59 62 62 61 63 62 62 62 63 63 64 63 63 65 63 62 58
58 64 60 58 55 54 56 52 59 69 67 73 77 80 80 82 82 77 75 73 71 66 64 66 65 62 63 62 63 60 58 58 59 59 59 60 60 61 61 61 63 64 64 63 62 62 62 62 61
67 60 58 58 54 43 52 53 55 62 67 72 79 81 82 82 82 80 77 75 72 67 65 64 64 63 63 62 63 61 59 58 58 58 58 58 58 59 60 62 61 62 62 62 62 63 62 61 61
60 53 41 38 39 39 56 53 57 67 72 74 77 80 80 81 79 78 76 73 71 65 64 63 63 61 62 61 62 61 60 60 59 59 58 58 58 58 59 61 60 60 62 63 62 62 61 61 60
55 53 40 30 34 40 48 42 58 73 76 77 81 82 81 79 78 78 76 73 70 66 64 63 62 61 61 61 61 61 61 61 60 60 60 60 60 60 62 61 62 63 64 63 63 63 62 61 60
53 48 58 45 47 40 44 55 67 73 71 75 77 80 78 79 78 78 78 74 71 67 64 65 63 64 62 62 62 62 62 63 62 62 62 61 61 62 61 62 62 61 62 62 61 62 61 61 60
57 61 46 48 32 31 43 48 49 58 64 71 73 76 77 79 79 79 78 75 73 70 68 66 67 66 64 64 63 63 64 64 63 63 62 63 63 64 62 62 62 62 63 63 62 62 62 61 60
53 50 51 51 46 36 35 44 61 63 67 69 70 76 77 78 79 79 79 77 76 72 70 67 67 68 65 66 65 64 64 65 64 63 63 64 65 65 64 63 63 64 64 64 62 62 62 62 62
56 54 52 42 41 47 45 46 68 65 66 69 70 74 78 79 80 80 80 77 76 72 71 69 68 69 67 67 66 66 65 65 65 64 64 65 65 65 65 65 65 65 65 64 63 62 64 62 61

GFSSGP_sfc_temp_105.txt.gz
Temp
65 67 67 67 53 50 47 57 67 65 66 71 76 74 67 69 69 57 75 80 78 75 75 75 73 74 74 74 74 74 75 75 75 75 75 75 75 75 75 76 76 76 77 77 76 76 76 75 74
70 76 68 62 49 42 50 63 63 70 74 77 78 75 71 70 75 73 74 79 78 76 75 74 73 74 74 74 74 74 75 75 75 75 75 75 75 75 76 76 75 76 77 77 76 76 75 74 73
70 76 60 54 48 45 49 63 67 72 77 76 70 73 73 72 77 76 77 79 80 77 78 76 72 73 74 74 74 74 75 75 74 74 75 75 75 75 75 75 75 76 76 76 76 75 74 73 72
70 66 63 51 49 59 63 67 74 74 75 75 75 69 76 81 79 78 79 80 79 76 75 72 71 72 73 74 74 74 74 74 74 74 75 75 75 75 74 74 74 75 76 76 75 74 72 71 70
67 60 50 47 53 64 72 74 74 71 72 74 75 70 71 77 80 79 79 80 76 73 70 70 70 71 73 74 74 74 73 73 73 73 74 73 73 73 73 73 74 74 75 74 73 72 71 70 70
59 59 45 44 55 67 72 74 76 74 74 74 73 70 70 78 78 76 77 76 76 72 70 69 71 71 72 73 73 73 73 72 73 72 72 72 72 71 73 72 73 73 73 72 71 70 70 70 69
55 51 47 51 58 64 72 73 72 71 72 72 75 67 69 72 74 75 75 74 71 70 70 68 67 69 70 69 69 70 72 72 73 69 71 72 71 70 72 72 72 72 71 70 70 70 69 69 69
62 56 50 57 57 59 73 75 75 73 70 79 80 67 65 72 74 73 72 69 68 68 68 67 66 66 65 64 67 67 69 68 71 69 69 69 70 70 70 71 71 70 70 70 69 69 68 68 68
64 54 52 56 59 65 74 72 75 77 74 76 78 77 79 77 75 70 68 66 66 66 66 66 65 65 64 64 65 66 67 66 67 65 64 67 69 70 71 70 69 70 69 69 69 68 67 67 67
59 53 55 65 69 68 73 72 73 70 72 73 74 78 76 75 73 69 67 65 64 64 65 65 65 64 64 64 63 63 64 65 65 65 62 66 68 69 71 69 68 69 68 68 68 67 67 66 63
61 57 65 69 72 73 71 69 72 70 65 72 71 74 73 73 71 70 69 68 67 67 65 65 65 64 65 62 61 62 62 63 62 63 63 65 68 68 67 66 67 65 67 66 66 65 63 64 63
60 67 69 70 74 73 70 69 69 64 69 76 76 75 76 73 71 70 70 70 66 67 65 65 64 62 61 62 61 62 61 61 61 61 65 66 66 66 67 66 64 64 64 62 61 62 63 63 65
63 67 70 73 73 71 74 70 69 67 74 78 79 79 75 73 73 71 71 69 67 64 64 64 63 63 62 62 62 63 62 62 63 62 66 67 66 66 66 64 64 63 63 62 61 61 65 63 64
68 68 68 69 69 69 69 68 65 71 76 76 78 74 74 73 73 70 69 67 68 66 63 64 65 64 64 63 63 63 62 61 63 62 66 67 68 67 67 65 64 64 64 63 64 63 62 62 63
66 60 63 66 67 67 69 64 64 72 74 74 78 79 75 74 74 71 70 68 68 65 64 64 67 66 64 64 64 63 62 62 63 65 66 67 68 67 67 65 65 66 66 64 61 62 62 62 64
58 56 49 62 65 68 67 56 69 74 73 73 75 78 74 73 74 72 72 70 67 64 63 64 67 66 64 65 64 64 63 63 64 64 65 66 67 67 66 67 67 67 67 66 63 62 63 61 61
50 45 48 55 65 66 66 58 67 70 75 73 71 72 73 72 71 72 72 68 65 64 62 62 64 64 63 63 64 63 64 64 64 65 65 65 65 65 66 66 66 67 67 66 64 62 64 61 59
43 45 52 51 59 60 58 58 64 68 71 67 69 70 71 70 71 72 70 67 64 62 61 61 61 61 61 60 62 62 64 64 64 64 65 64 65 66 64 65 65 65 66 65 62 65 63 62 61
52 51 49 55 61 57 57 56 62 67 69 67 66 67 69 71 74 71 69 65 61 60 60 60 62 62 59 58 57 57 60 63 64 64 63 64 64 65 64 66 65 65 66 64 64 65 63 59 59
53 50 50 56 59 59 55 53 58 62 66 69 66 67 68 66 70 69 64 63 60 59 59 62 62 61 59 58 59 59 58 59 64 64 64 64 64 64 63 66 65 66 64 62 63 64 60 59 58
54 50 49 50 56 58 53 49 54 62 68 73 71 71 72 68 67 66 64 60 58 57 59 62 62 60 58 61 60 58 58 59 60 62 62 63 64 63 63 64 64 65 63 63 61 63 60 58 57
48 56 56 54 48 40 53 39 48 56 61 68 72 72 72 69 69 67 63 58 58 57 60 64 63 61 61 61 60 59 59 57 60 61 62 62 63 63 62 64 64 64 64 62 61 63 61 60 58
52 57 55 52 46 43 48 45 47 58 59 65 69 69 74 72 68 66 64 60 60 59 60 64 62 61 62 61 60 58 58 58 60 62 61 61 62 63 62 63 63 62 63 63 63 60 60 60 58
59 52 53 50 44 36 46 45 44 52 58 65 71 72 70 73 69 67 66 62 60 59 59 63 61 61 61 60 60 59 58 58 58 60 59 60 61 60 61 61 61 60 61 61 60 60 60 58 58
52 44 33 31 31 33 49 46 47 57 65 68 69 72 70 69 68 66 64 62 59 57 59 62 61 60 60 60 59 58 58 60 58 58 59 58 58 58 59 60 60 59 59 60 60 59 59 59 58
46 44 32 26 27 34 48 38 45 63 67 71 74 74 71 68 68 66 65 63 59 59 58 61 60 60 60 60 59 58 58 58 60 58 59 59 59 59 59 59 60 59 59 59 59 59 59 59 59
48 42 50 40 41 34 40 47 56 60 60 65 71 72 68 69 68 66 66 64 59 59 59 59 59 61 60 61 59 57 58 58 59 60 60 60 60 60 58 58 59 59 59 60 60 60 59 60 59
50 53 38 41 29 26 37 41 43 52 52 59 65 68 69 69 69 68 66 64 61 60 60 59 60 62 61 60 60 59 59 61 61 60 60 60 60 61 59 59 60 60 60 61 61 61 61 60 60
42 42 44 44 41 29 27 36 55 50 52 54 61 68 69 68 70 69 68 66 63 62 60 60 59 60 60 60 59 59 59 60 60 61 60 60 60 61 60 61 61 61 60 61 61 61 61 59 59
46 41 43 35 35 38 37 38 61 58 59 57 60 66 67 69 68 71 69 66 63 62 61 61 60 60 60 63 62 59 60 60 59 59 60 61 61 61 61 62 61 61 62 61 60 58 61 59 58

GFSSGP_sfc_temp_108.txt.gz
Temp
63 64 65 65 52 47 43 52 60 61 61 69 72 71 67 66 66 56 73 75 74 72 73 73 73 74 74 74 74 74 75 75 75 75 75 75 75 75 75 75 76 76 77 77 77 77 76 75 74
66 71 65 56 46 40 45 56 58 66 71 72 74 72 69 65 71 71 71 74 74 73 73 73 72 73 74 74 74 74 75 75 75 75 75 75 75 75 75 75 75 76 76 76 76 76 75 74 73
69 72 58 51 42 42 46 59 61 68 72 72 69 70 72 68 72 73 75 75 74 73 74 74 72 72 73 73 74 74 74 74 74 74 75 75 75 75 75 75 74 75 76 76 76 76 74 73 72
67 62 58 48 45 52 56 61 68 69 67 70 71 67 73 77 75 77 77 76 73 72 74 72 71 72 73 74 74 74 74 73 73 74 74 75 75 75 74 74 74 75 76 76 76 75 73 71 71
62 55 47 41 47 55 63 66 70 69 69 71 71 67 69 73 77 76 75 77 72 70 72 71 70 71 73 74 74 73 73 73 73 74 73 72 74 74 73 73 74 74 75 74 74 73 71 70 70
56 54 42 40 49 59 65 69 70 70 71 71 69 68 64 72 74 74 73 73 71 68 68 69 71 71 72 73 73 72 71 72 72 72 71 70 72 73 73 73 73 73 73 72 72 70 70 70 69
52 48 42 45 51 57 65 70 68 67 67 69 71 64 64 69 74 74 72 70 69 68 67 67 68 70 70 70 70 70 71 72 71 70 70 71 70 70 72 72 72 72 71 71 70 70 69 69 69
57 52 43 48 50 53 64 71 71 69 68 74 76 63 61 71 71 69 67 66 66 66 66 65 65 65 65 66 68 68 69 68 70 68 68 67 67 69 70 71 71 71 70 70 70 69 68 68 67
60 46 42 50 52 58 68 67 71 74 71 71 74 72 75 74 70 67 64 63 64 65 64 65 63 63 63 63 64 67 66 66 68 68 67 66 67 67 70 70 70 70 69 69 69 69 68 67 66
55 45 50 57 61 61 68 66 69 67 69 70 71 73 71 72 69 67 64 63 62 63 63 63 63 62 62 64 62 62 63 65 67 67 66 67 67 68 68 68 69 69 68 68 68 68 67 66 64
54 53 57 62 64 66 66 63 67 65 61 67 69 70 68 70 69 67 66 65 65 66 63 63 63 63 61 61 61 61 62 62 64 64 66 67 66 66 67 66 67 66 67 64 65 66 65 63 63
53 62 61 63 67 65 64 69 65 64 67 73 72 71 68 68 67 67 66 65 64 63 64 63 63 62 61 61 60 60 61 62 63 63 64 64 65 65 65 66 66 64 64 61 63 60 60 61 63
58 61 65 67 65 64 67 63 65 64 70 73 73 74 67 68 69 70 69 66 63 63 63 63 62 61 60 60 60 60 61 61 62 63 62 65 65 65 65 65 64 62 60 59 58 60 60 61 62
62 62 62 61 61 63 64 65 61 66 72 72 72 71 71 68 70 69 65 63 63 64 63 62 62 61 61 61 60 61 63 62 61 62 63 65 65 65 65 64 61 60 61 60 59 58 58 60 62
61 55 57 58 59 59 63 60 58 66 68 69 72 74 72 71 69 70 69 66 65 64 64 62 62 62 61 62 61 62 62 61 62 62 63 65 65 64 64 62 61 61 60 57 57 58 59 61 62
55 53 45 58 59 62 57 52 63 66 65 65 69 72 74 70 71 73 71 68 65 63 62 62 65 62 62 62 63 63 61 62 63 63 65 66 66 65 64 62 62 62 61 61 60 58 59 60 60
46 43 45 51 60 58 57 54 60 65 65 65 66 68 71 72 69 73 70 66 63 63 61 61 61 61 61 63 63 63 61 62 64 63 65 66 66 66 64 63 63 62 62 62 61 59 61 60 57
40 41 46 45 51 55 52 53 58 61 62 61 65 66 67 66 68 71 67 65 63 62 61 60 60 61 61 60 62 63 61 62 63 64 64 65 65 66 64 62 63 62 63 61 61 62 60 61 58
47 44 43 48 56 50 51 51 56 59 61 62 64 65 64 68 65 67 64 63 60 60 60 59 58 59 59 57 59 61 61 62 62 64 65 65 65 65 64 64 64 63 65 61 62 62 61 56 58
47 45 44 50 55 53 51 51 59 57 60 63 63 65 67 65 62 63 61 61 60 59 59 58 59 59 58 58 57 60 60 63 63 63 65 65 64 65 65 65 65 64 63 63 62 62 58 58 58
47 44 45 46 51 52 48 48 52 58 60 63 65 67 69 68 62 61 60 58 58 58 58 59 59 61 60 58 58 57 58 60 61 61 62 63 64 65 65 66 66 66 64 62 63 63 63 61 56
44 52 51 49 45 40 50 37 49 55 57 60 63 66 68 62 65 64 61 57 57 57 58 59 60 61 60 59 58 58 55 58 59 62 63 63 63 64 65 65 66 66 65 64 63 64 61 62 60
49 53 51 50 44 38 42 36 47 52 53 58 62 66 69 67 65 64 61 60 58 57 57 59 59 60 61 60 60 59 58 58 58 60 61 63 62 63 63 63 63 64 63 63 63 60 60 58 58
55 49 48 45 41 33 42 39 43 45 52 59 66 68 71 67 65 66 64 59 57 57 57 58 59 60 60 60 60 59 58 59 58 60 60 60 61 61 61 62 62 63 62 61 59 58 59 57 58
49 41 31 29 29 32 45 41 45 52 58 61 64 66 68 71 65 63 57 57 56 56 56 58 59 58 60 60 59 59 59 59 59 60 60 61 60 60 58 60 59 60 61 60 60 59 58 58 57
44 43 33 26 27 33 44 34 42 55 59 60 63 64 66 68 67 63 60 59 57 57 57 58 58 58 60 59 59 59 57 59 59 60 60 60 60 60 59 60 60 60 60 60 59 58 57 57 57
44 38 48 37 36 32 36 44 52 58 54 57 58 62 63 60 62 62 61 59 58 57 57 57 58 58 60 60 59 59 58 57 59 59 60 59 60 60 59 59 59 59 59 59 58 58 57 57 57
45 49 36 36 26 27 33 35 38 46 48 53 54 56 61 63 62 64 63 59 59 58 58 57 59 58 60 60 59 59 57 57 57 58 58 59 59 59 58 59 59 58 58 58 58 57 58 57 58
40 40 40 40 36 30 26 32 47 47 49 49 50 56 58 61 62 64 64 61 59 59 58 57 57 58 60 61 59 58 57 58 58 59 59 58 59 58 58 58 57 58 58 58 58 58 59 58 59
48 42 41 30 29 32 33 35 57 52 54 51 49 55 62 65 62 62 64 61 58 58 57 57 58 58 59 61 60 59 57 58 59 59 59 58 58 59 59 59 57 58 59 58 59 59 60 58 58

GFSSGP_sfc_temp_114.txt.gz
Temp
62 61 61 61 51 45 40 47 51 54 56 62 65 64 63 62 61 54 69 71 71 69 70 71 73 74 73 74 74 75 76 76 76 75 75 75 75 75 75 75 76 77 78 79 77 78 77 76 74
62 65 61 52 44 38 44 49 52 59 65 66 66 64 63 62 67 67 69 71 71 70 70 72 72 73 73 74 74 74 75 76 77 76 75 75 75 75 75 75 75 76 77 78 78 77 76 74 73
66 65 56 46 37 39 44 52 56 61 65 65 61 64 66 65 68 68 72 71 71 70 70 71 71 72 73 73 74 74 75 74 74 75 75 75 75 75 75 75 75 76 77 78 78 77 74 72 71
62 59 53 44 39 46 50 53 59 62 66 64 65 63 67 71 71 72 74 71 70 69 70 70 70 71 73 73 74 74 73 73 73 74 74 75 75 75 74 74 74 75 77 76 77 74 72 70 70
57 52 44 37 41 48 54 57 59 61 61 64 65 63 64 71 71 72 70 71 70 69 69 69 69 71 73 73 74 73 73 72 73 74 75 74 74 74 73 73 73 74 76 75 73 72 71 70 69
52 49 40 37 42 50 56 61 61 61 63 64 63 62 65 68 69 70 70 69 69 68 68 68 70 71 72 73 73 72 72 72 72 73 72 72 71 73 73 72 72 73 73 73 72 71 70 70 69
50 44 39 39 43 48 55 61 61 59 61 64 65 60 65 67 70 68 67 66 66 66 66 67 69 70 70 70 70 70 70 71 71 71 71 71 71 71 71 71 72 72 72 71 71 70 69 69 68
51 48 39 43 43 48 57 62 64 63 60 69 68 60 61 66 65 64 64 64 64 65 65 67 68 70 69 70 69 68 69 69 70 70 70 70 70 70 71 70 70 72 71 70 70 68 68 68 67
51 42 37 46 46 50 59 59 62 63 62 63 67 65 70 66 65 64 62 62 63 63 64 65 68 69 70 71 70 69 69 69 68 70 69 67 67 68 69 70 70 71 70 69 69 68 68 67 66
50 41 43 53 53 55 58 59 62 60 61 63 64 68 67 63 63 63 61 61 61 62 62 64 65 66 67 68 68 70 70 69 68 68 68 68 66 67 69 69 69 70 69 68 68 67 66 66 65
49 45 50 55 57 58 55 55 59 55 54 61 63 67 63 63 62 63 64 64 65 65 63 63 63 63 63 64 66 65 65 67 67 66 67 66 66 66 66 66 67 67 68 66 66 65 64 63 64
47 53 56 57 61 57 55 54 57 57 60 68 66 65 65 63 62 63 64 64 64 61 63 62 62 61 61 61 61 62 63 64 66 66 65 64 63 64 65 65 66 66 66 64 62 61 59 61 61
51 54 58 60 60 59 59 57 58 55 64 66 66 65 64 63 62 64 65 65 63 61 62 62 62 62 61 60 59 61 61 63 65 66 66 65 63 63 65 65 65 66 65 64 59 58 59 59 60
56 56 57 57 58 58 58 57 54 60 64 64 64 64 63 63 64 63 62 65 62 65 62 62 62 62 61 60 59 61 61 62 63 64 65 65 64 64 63 64 64 63 64 62 60 59 58 60 60
57 52 54 55 57 56 56 51 52 61 62 61 63 63 63 63 64 64 67 66 68 68 64 61 62 61 61 60 59 59 60 61 62 63 65 66 65 64 64 64 64 62 61 59 59 57 56 58 59
51 49 44 54 55 58 57 48 57 61 58 58 60 61 61 62 64 64 65 67 70 67 62 62 64 61 60 60 59 59 61 60 60 62 63 65 65 65 64 64 62 61 59 60 60 58 55 55 57
44 41 43 48 56 53 53 51 53 55 59 56 57 57 59 61 61 62 64 64 67 64 61 61 62 60 60 59 59 59 61 61 61 62 62 63 64 64 65 64 62 59 58 59 59 57 59 56 55
40 40 41 40 48 49 48 47 50 54 54 54 54 54 56 58 61 65 64 64 62 60 61 61 62 61 60 59 61 61 60 60 61 62 62 62 63 63 64 62 59 60 58 57 59 58 55 55 56
44 41 39 40 50 48 49 47 48 53 52 53 54 53 56 60 65 62 62 59 57 59 59 60 60 59 60 61 60 60 59 60 62 62 62 62 63 63 62 60 59 59 59 58 58 59 57 52 55
44 40 41 45 50 48 43 45 50 53 53 55 55 54 56 58 64 66 60 56 57 59 60 60 60 59 61 62 62 61 61 61 62 62 62 62 62 61 61 60 60 59 58 57 57 59 55 53 57
41 39 38 42 46 46 42 42 45 51 52 56 57 56 57 58 60 63 61 55 55 57 59 60 60 60 60 62 62 60 60 60 60 61 61 62 62 61 61 61 60 59 59 57 58 59 60 55 53
41 47 47 46 39 32 44 32 44 49 49 53 56 55 55 56 59 62 59 54 55 57 57 59 59 60 58 58 61 60 60 59 60 60 62 62 62 61 60 61 61 60 59 58 58 60 60 57 55
42 48 46 44 39 34 36 34 39 49 48 50 53 55 55 56 57 59 61 57 56 57 56 58 60 60 58 58 59 60 59 60 61 61 61 62 63 62 61 60 60 60 59 58 59 58 57 57 59
51 45 44 40 36 28 37 36 39 41 46 48 53 55 55 55 56 59 63 59 55 56 56 59 59 59 58 57 55 56 55 58 59 60 60 61 62 62 62 61 60 60 59 58 58 59 57 56 59
44 39 30 28 27 27 40 35 42 47 51 50 50 52 53 53 54 56 58 59 56 57 57 58 59 58 58 57 57 55 55 58 59 60 61 60 61 61 61 62 60 60 60 60 60 59 57 56 57
40 39 31 25 25 29 39 30 38 48 50 51 52 52 53 52 54 56 58 61 57 58 57 58 58 58 57 58 57 57 56 56 56 57 59 60 61 62 62 63 62 62 62 61 60 59 59 57 56
41 37 43 34 32 29 32 37 45 48 48 50 50 51 49 51 53 55 58 60 55 57 58 58 59 60 57 57 59 59 59 59 58 57 57 58 60 61 61 63 62 62 62 60 60 59 57 57 57
44 45 35 34 27 26 28 30 34 41 43 47 46 47 49 53 53 56 58 60 61 57 59 57 59 60 58 58 60 59 59 59 59 58 59 58 60 61 61 61 61 61 61 61 60 58 58 58 57
39 36 36 37 32 26 23 29 42 41 44 45 46 48 48 51 51 54 57 59 61 58 58 57 57 59 59 59 60 58 58 58 58 58 59 59 59 60 60 60 60 60 60 60 59 59 59 58 57
40 36 35 28 26 30 28 28 46 43 44 47 47 50 51 52 53 54 56 59 55 56 57 57 57 58 58 57 59 58 58 58 57 57 58 58 58 59 59 59 59 59 59 59 59 58 58 57 56

GFSSGP_sfc_temp_120.txt.gz
Temp
76 88 92 88 76 76 73 75 79 77 77 83 85 82 82 84 79 75 93 96 93 95 92 82 74 75 74 74 75 76 76 76 76 76 75 76 76 76 76 76 76 77 77 78 78 78 78 77 75
88 86 89 86 72 70 75 78 76 79 80 82 83 83 81 80 87 88 91 92 92 93 91 89 73 74 74 74 74 76 76 76 76 76 76 76 76 76 76 76 76 76 77 78 78 77 77 75 74
86 86 83 78 75 71 74 78 80 80 82 81 83 88 85 84 88 92 96 92 92 92 91 89 73 73 74 74 74 75 76 75 75 75 75 76 76 76 76 76 75 76 78 78 78 77 75 73 72
86 85 83 71 72 76 76 81 80 78 82 84 85 81 88 94 92 95 97 94 92 91 91 77 71 72 74 74 74 75 75 74 74 74 75 76 75 76 76 74 74 75 77 76 76 74 73 71 71
88 85 73 70 74 77 79 81 79 78 79 80 83 82 84 91 95 93 95 94 92 91 89 83 70 72 73 74 74 74 74 73 73 74 74 75 76 73 70 71 70 70 74 76 74 73 71 70 70
79 81 69 68 74 76 79 81 79 78 78 80 78 80 85 90 91 93 93 92 92 89 86 83 73 72 72 73 73 73 73 73 72 73 74 74 73 71 72 73 71 72 74 73 72 71 70 70 69
75 74 70 72 73 73 76 82 78 80 78 77 83 77 86 91 90 89 90 91 88 87 84 83 78 76 71 70 71 71 71 72 72 72 72 71 71 71 72 72 73 73 73 72 71 70 69 69 69
79 76 69 72 69 73 80 78 81 82 80 84 84 78 81 89 89 87 86 87 85 84 83 83 79 76 79 77 69 69 70 70 70 71 70 70 69 71 71 71 72 73 72 71 70 69 69 68 67
80 68 66 70 70 75 78 75 81 83 80 81 84 84 87 89 89 87 86 85 84 83 83 82 80 76 78 77 76 70 69 70 69 71 69 69 82 79 78 75 71 72 71 70 69 68 68 67 67
72 68 69 78 78 76 76 76 78 76 78 79 81 86 88 89 89 87 87 86 84 83 83 83 80 78 77 76 76 77 77 80 80 80 79 82 82 81 82 76 70 71 70 69 68 68 67 69 77
71 66 75 73 76 79 76 76 81 76 75 80 80 83 86 85 86 85 87 88 89 87 86 83 80 79 76 75 75 76 74 79 81 81 81 81 82 79 81 81 74 74 72 68 70 71 76 79 81
64 71 72 74 76 75 73 78 75 77 79 85 85 85 85 83 85 85 86 87 89 86 86 84 81 76 76 76 74 75 78 74 80 81 80 77 76 78 78 80 75 76 73 72 74 72 76 80 81
65 69 73 73 74 74 76 73 73 76 82 83 85 83 81 83 84 86 86 87 87 85 85 83 83 77 74 73 72 73 74 78 77 76 77 75 74 76 77 72 76 71 72 75 74 75 79 78 74
72 69 70 73 72 73 69 71 74 77 81 79 79 80 82 82 83 84 85 87 88 87 86 85 83 81 76 72 71 71 73 76 73 72 75 76 73 73 69 68 73 68 71 74 72 77 79 78 77
71 64 69 71 72 71 74 67 68 78 80 78 77 78 79 81 84 84 87 88 90 90 90 86 85 82 80 76 71 71 72 73 74 72 73 74 72 73 71 67 68 67 66 67 68 74 77 77 77
63 65 59 70 72 72 71 62 73 78 75 75 75 78 79 81 83 86 88 88 89 88 88 89 87 82 80 79 79 74 72 71 71 76 70 71 70 70 69 67 66 68 65 64 67 73 75 76 74
62 55 60 63 70 71 68 65 73 77 73 74 76 78 80 80 80 85 87 87 87 87 87 85 84 81 79 79 80 78 77 72 71 76 75 69 68 70 67 67 65 66 64 63 64 69 74 73 75
53 55 57 59 68 68 66 66 73 74 74 74 74 75 76 77 79 85 85 85 85 83 83 81 82 81 79 78 76 74 71 69 70 69 73 74 69 67 67 66 65 65 63 62 64 66 75 76 77
59 58 56 63 66 63 63 65 69 73 73 71 72 75 77 78 82 83 83 82 81 81 81 80 79 78 78 73 70 66 65 65 66 69 70 68 70 67 65 64 64 63 62 62 64 67 73 74 74
56 54 55 61 64 59 61 62 69 71 71 74 74 75 76 76 78 79 80 80 79 79 78 78 78 77 78 73 71 70 68 68 69 66 69 67 69 68 66 65 63 62 61 61 64 67 72 74 75
54 52 53 53 59 60 58 57 63 70 73 73 73 75 73 74 73 75 76 77 78 78 77 78 79 77 75 77 71 72 70 68 64 64 64 66 71 71 67 65 62 62 61 60 61 66 67 70 72
48 59 56 52 49 46 61 47 59 64 65 68 70 70 72 73 73 74 75 76 76 76 76 77 78 75 69 72 69 71 69 68 70 69 67 69 71 69 66 64 63 61 62 61 61 65 69 73 70
52 58 52 51 51 51 54 49 58 62 61 64 68 68 69 70 71 73 75 76 77 75 73 75 75 68 68 69 73 73 74 75 73 65 66 67 64 65 67 63 60 61 61 62 62 63 70 73 72
59 53 52 52 51 41 51 51 55 58 62 63 66 66 67 69 71 73 76 76 76 75 72 69 69 67 66 67 71 73 74 73 70 66 68 67 62 61 62 60 59 59 59 60 61 63 68 71 73
53 46 38 34 37 38 56 50 54 63 63 64 62 64 66 69 69 71 72 73 73 72 73 70 64 64 63 63 69 71 71 72 69 69 68 67 62 60 59 60 58 58 58 59 61 63 69 70 72
47 47 38 28 35 42 52 44 52 61 63 63 63 63 65 67 69 70 71 71 72 71 73 73 70 63 63 62 64 68 71 70 68 70 70 66 64 62 62 60 60 57 57 58 60 63 68 70 71
45 40 53 42 44 39 47 50 55 59 59 61 62 64 64 66 67 70 71 71 71 70 69 72 72 68 64 61 63 65 67 72 71 71 70 69 66 64 64 63 60 59 57 57 60 63 65 67 69
48 53 41 43 31 32 44 46 48 52 55 59 61 62 64 67 68 69 70 71 72 71 69 64 70 67 65 63 62 67 69 73 72 70 70 69 65 64 62 61 61 61 60 59 59 61 64 65 65
39 42 42 44 44 35 36 44 59 55 56 56 59 61 64 66 67 68 69 71 72 71 69 64 62 63 63 63 62 66 68 70 70 66 66 67 65 63 61 62 61 60 60 61 60 58 61 65 66
45 36 36 34 36 44 43 43 60 58 57 59 59 62 63 66 68 68 69 69 70 68 67 65 56 60 61 62 62 64 67 71 70 68 69 68 67 69 68 65 62 60 59 60 60 60 62 66 66

GFSSGP_sfc_temp_123.txt.gz
Temp
78 89 95 92 77 80 76 82 88 83 83 90 92 88 87 89 83 76 100 100 101 99 94 83 74 74 74 75 75 75 76 76 76 76 76 76 76 76 76 76 76 77 77 78 78 78 78 77 75
93 94 93 87 74 73 78 88 81 87 88 89 89 89 86 83 92 93 95 97 99 99 95 91 73 74 74 74 75 75 76 76 76 76 76 76 76 76 76 76 76 76 77 78 78 78 77 75 74
84 94 85 81 76 73 78 86 87 89 88 86 87 92 91 87 94 96 101 97 99 98 97 89 73 73 74 74 75 75 75 75 75 75 76 76 76 76 76 75 76 76 77 77 78 76 75 73 72
90 89 86 74 74 83 83 87 88 84 88 91 91 85 94 99 96 99 102 99 98 98 98 74 72 72 73 74 74 75 75 74 74 75 75 76 76 76 75 72 71 70 71 76 76 75 73 71 71
92 87 76 74 76 84 87 88 88 85 86 87 90 85 88 96 101 99 100 99 97 97 95 81 71 72 73 74 74 74 74 74 74 74 74 75 75 75 73 72 70 71 69 72 75 73 71 71 70
81 85 72 71 77 85 87 88 86 85 85 86 85 86 89 97 96 99 99 98 97 95 92 85 73 72 73 73 73 73 73 72 72 73 74 75 74 73 71 71 71 71 72 71 73 71 71 70 70
78 78 72 76 77 81 84 89 84 84 85 83 89 81 91 95 95 95 98 98 95 93 89 86 81 77 71 71 71 71 72 72 72 72 72 73 71 71 71 71 71 71 71 72 72 70 69 69 69
83 79 72 76 75 77 89 86 87 86 86 93 89 82 85 92 94 93 94 94 92 90 87 86 83 81 80 79 70 70 71 70 71 71 70 70 70 70 71 71 71 72 72 72 71 69 68 68 68
87 71 69 74 76 80 89 81 88 92 89 87 89 90 93 94 94 93 91 90 89 87 86 86 83 82 82 82 78 71 70 70 69 71 69 69 81 79 77 75 71 72 71 70 69 68 68 67 67
77 70 72 82 84 83 85 80 85 82 81 84 85 90 92 93 93 92 91 90 87 86 86 86 84 81 82 81 81 80 80 80 80 80 79 79 81 81 83 77 70 71 70 69 68 67 66 69 74
77 68 78 82 85 85 83 83 85 82 79 84 84 88 91 91 90 89 90 92 92 91 89 88 85 83 81 79 78 81 83 82 82 81 82 80 80 80 82 76 79 76 70 75 71 68 72 76 78
72 77 78 80 83 80 78 83 80 82 82 89 90 92 91 89 88 89 89 90 92 92 90 89 88 83 81 83 78 78 83 83 83 83 82 80 79 78 79 77 77 79 77 74 74 69 69 76 80
73 75 78 80 79 78 80 77 78 80 87 89 89 88 87 87 88 90 91 92 92 90 91 89 88 84 82 81 78 77 83 81 83 84 83 82 80 78 79 76 75 79 77 72 72 71 74 77 80
77 76 76 77 77 78 73 74 77 80 85 84 84 84 85 86 87 88 89 90 91 90 90 90 87 86 82 80 75 77 81 85 82 84 81 80 80 79 79 78 75 75 73 70 67 72 69 76 79
75 69 73 74 76 75 77 70 72 81 84 82 83 83 84 86 88 88 89 90 92 93 93 90 88 87 83 79 75 76 80 83 83 83 81 80 78 77 78 76 73 72 68 67 66 72 69 73 76
67 68 61 72 75 77 75 63 77 85 83 81 82 83 82 84 86 89 90 91 93 92 91 92 93 88 85 83 78 74 76 78 82 80 77 78 77 77 76 75 74 70 67 65 64 66 66 73 77
64 56 61 66 77 76 73 67 78 84 81 79 81 81 83 84 86 88 90 91 92 91 90 88 89 88 85 84 84 78 72 72 76 81 79 72 74 75 73 72 70 70 69 64 63 63 65 74 76
54 56 61 61 69 72 68 69 76 81 79 78 80 81 82 82 85 88 88 88 87 84 84 85 86 86 86 84 83 83 77 74 71 75 81 77 75 74 72 69 68 70 66 64 63 62 66 77 76
61 59 57 64 70 67 67 68 72 78 80 76 79 80 81 82 87 88 87 86 85 85 84 84 83 83 83 83 81 80 76 71 69 71 78 75 72 73 69 69 67 65 63 63 63 62 63 71 73
62 57 57 62 67 64 62 63 69 74 77 77 78 79 80 82 84 84 84 83 83 82 83 83 83 83 83 84 83 80 75 67 68 70 74 76 74 70 70 69 65 65 63 62 62 62 62 67 70
60 56 56 55 61 64 62 58 62 70 75 78 79 80 82 80 80 80 80 81 80 80 78 81 83 84 82 83 81 71 69 67 64 67 70 74 73 73 70 67 65 63 63 61 61 62 62 64 68
53 62 59 56 53 47 61 46 60 66 70 73 76 76 77 78 78 79 79 80 80 79 78 80 82 83 82 81 77 68 66 65 65 67 69 72 73 73 73 71 66 63 63 62 62 62 62 65 66
55 62 58 56 51 52 54 51 58 66 64 67 71 74 76 76 75 76 78 79 81 79 78 76 79 80 78 76 76 70 66 72 72 73 69 69 71 73 73 70 66 62 62 62 62 61 62 65 66
62 57 56 54 49 39 49 51 54 59 64 68 71 73 73 74 74 76 78 79 80 77 76 77 74 74 70 69 70 68 67 72 72 72 69 70 69 70 71 70 65 64 62 61 61 62 61 63 67
58 49 35 33 33 35 53 50 54 64 69 71 69 69 70 72 72 74 75 76 77 76 75 76 78 72 70 68 69 67 69 69 73 71 70 68 64 64 66 65 62 61 62 61 61 61 61 63 66
53 50 36 28 33 40 53 44 55 67 69 70 71 70 70 71 72 73 74 75 76 75 74 73 77 76 70 69 67 65 68 70 76 74 71 71 67 64 64 62 61 61 60 59 61 61 61 62 62
50 43 53 41 44 38 47 54 59 64 63 65 67 68 67 68 70 73 74 74 75 76 74 71 72 76 70 67 68 64 65 69 74 75 70 73 69 67 64 62 60 59 58 59 59 59 60 61 62
45 54 37 37 27 29 43 45 48 55 58 63 64 65 67 69 70 72 74 74 75 75 74 72 70 72 72 69 67 63 63 67 71 73 71 71 72 67 63 62 60 58 58 58 58 59 60 60 61
41 40 46 44 39 35 34 42 59 57 59 60 63 64 67 68 70 72 72 74 75 74 73 70 69 67 67 68 66 64 63 65 68 70 70 71 70 70 66 62 60 58 57 58 58 58 59 60 62
47 42 34 33 36 42 42 42 57 61 63 63 62 64 67 68 70 73 72 73 73 71 71 70 66 66 64 65 65 65 62 64 66 68 71 72 70 70 65 62 61 59 58 57 57 57 58 59 61

GFSSGP_sfc_temp_126.txt.gz
Temp
75 81 86 84 70 72 69 75 87 84 84 91 92 89 85 88 80 71 94 96 94 90 81 78 74 74 75 75 75 75 75 76 76 75 75 75 76 76 76 76 76 77 77 77 77 78 77 77 75
86 90 88 81 67 64 70 83 83 86 88 91 90 89 86 83 91 90 89 95 93 89 84 80 73 74 74 75 75 75 76 76 75 75 75 76 76 76 76 76 76 75 76 77 78 78 76 75 74
79 89 80 74 70 65 71 84 86 87 88 87 86 91 89 86 93 94 93 93 95 90 89 79 72 73 74 74 75 75 75 75 75 75 75 76 76 76 76 76 74 70 68 70 75 76 75 73 72
83 84 81 68 67 77 79 86 88 86 88 89 89 84 93 98 94 97 96 97 94 92 88 72 72 72 73 74 75 74 75 74 74 74 75 75 76 76 74 73 72 70 70 74 70 75 73 71 71
84 82 69 68 71 78 85 89 88 85 86 87 88 84 87 95 99 99 95 96 91 89 79 75 71 72 73 74 74 74 74 74 73 74 74 75 75 75 74 72 71 71 72 73 71 72 72 71 71
76 79 65 64 72 80 86 90 88 85 87 86 85 85 88 96 95 96 94 92 91 81 80 76 72 72 72 73 73 73 73 73 73 74 73 74 74 73 72 72 71 71 71 71 72 72 71 70 70
73 72 66 69 71 77 84 90 84 85 84 83 89 80 88 91 93 93 93 91 89 84 80 77 75 74 71 71 71 71 72 72 72 72 72 72 71 70 71 71 71 71 71 71 72 71 70 70 70
78 74 67 70 70 73 86 89 89 86 83 94 92 79 81 86 91 91 91 90 86 83 81 77 76 74 74 73 70 70 71 72 71 71 71 70 69 69 70 70 71 71 71 71 70 69 69 68 67
84 67 64 67 70 75 86 84 89 91 86 90 89 88 91 92 93 88 87 86 84 83 81 78 77 76 75 75 73 70 71 71 71 71 70 68 73 71 72 71 70 71 71 70 68 68 67 67 66
73 66 67 76 79 79 84 85 84 83 82 84 85 90 92 92 90 87 84 82 82 81 80 80 78 76 76 79 74 73 74 73 73 74 72 73 74 74 76 73 69 70 70 69 68 67 66 68 66
74 66 74 77 81 84 82 82 87 81 77 82 82 85 88 89 87 85 86 86 83 83 82 81 79 77 76 76 76 75 76 75 74 75 74 73 76 74 73 71 71 70 68 68 67 66 67 70 70
68 75 77 78 80 79 77 82 80 81 81 88 88 89 89 87 86 84 84 84 85 83 82 82 81 77 76 77 75 75 77 76 75 75 75 74 74 72 72 73 70 70 71 68 68 66 67 69 71
70 73 77 79 80 79 80 75 76 78 84 88 89 87 85 85 86 86 85 86 85 83 83 81 81 77 77 76 74 75 76 77 76 76 76 76 74 73 73 72 70 69 69 68 69 67 68 69 70
74 75 75 78 77 78 73 74 75 77 83 83 84 83 84 84 85 84 84 84 85 85 84 82 80 79 77 76 75 74 75 77 76 77 77 76 75 73 73 72 70 68 68 68 68 66 67 66 65
73 66 71 73 75 74 77 69 70 79 81 79 81 82 83 84 86 84 85 85 86 85 84 81 79 79 77 77 77 74 75 76 76 76 76 76 75 74 73 72 70 68 68 67 66 65 65 64 64
64 65 58 69 73 74 73 60 73 80 79 78 80 81 82 83 84 86 86 87 85 84 82 82 85 79 78 77 75 73 74 76 76 76 77 75 75 74 72 72 71 69 67 65 65 63 63 63 64
60 52 56 62 73 72 70 64 74 80 79 78 81 81 82 82 83 85 87 86 86 85 84 82 81 77 76 76 75 73 73 73 75 76 76 75 74 74 73 72 70 68 66 64 63 63 63 62 62
52 54 58 58 67 69 66 65 72 77 77 77 79 80 80 80 82 85 86 84 82 78 79 77 76 76 76 75 75 73 73 72 73 73 74 73 72 72 71 70 69 68 65 64 63 62 62 63 62
59 57 55 62 68 64 58 60 67 73 75 73 76 77 78 80 84 85 84 82 81 80 79 78 76 75 74 73 73 73 70 71 71 72 72 73 72 72 71 68 67 68 65 64 64 63 61 61 63
59 56 56 62 66 62 60 58 64 68 70 72 71 75 77 79 81 83 81 79 78 78 78 77 77 76 76 76 73 74 74 72 71 70 71 71 72 72 70 67 66 67 64 64 63 63 61 61 61
57 55 56 55 62 64 58 54 59 67 70 72 72 75 79 77 77 80 78 76 76 75 75 77 77 77 75 75 75 72 69 67 64 66 67 70 70 69 69 68 65 65 64 62 63 62 62 59 60
52 61 59 57 54 46 59 42 55 61 63 68 70 72 74 76 78 78 77 76 75 72 74 75 75 77 78 75 74 68 65 64 65 66 66 68 70 68 68 68 66 64 64 62 63 63 62 62 59
54 62 58 56 52 50 51 46 52 60 59 64 68 72 73 74 75 75 75 76 77 73 73 73 73 73 75 74 72 70 66 67 66 66 64 65 68 68 68 67 66 64 64 63 62 62 62 62 61
63 57 55 55 50 38 47 46 47 54 60 65 70 71 72 72 72 74 75 75 75 71 71 71 72 71 69 68 67 69 67 66 65 65 64 65 66 67 68 68 66 64 63 62 62 62 62 61 61
58 50 38 32 33 33 49 45 48 60 64 67 68 70 70 71 69 70 72 72 72 71 70 69 70 72 69 67 66 66 67 67 67 67 66 65 65 66 66 66 65 63 62 62 62 61 61 61 60
50 43 37 28 30 37 50 39 49 64 67 69 72 69 70 69 70 71 72 72 72 72 70 68 68 69 69 67 65 65 65 66 67 65 67 67 66 65 64 64 63 63 62 62 61 61 61 61 61
45 41 50 38 43 36 40 50 59 63 65 65 66 67 67 68 68 71 72 71 71 70 69 67 68 68 69 68 65 66 64 65 65 67 68 68 66 65 64 62 61 61 61 61 60 60 60 60 60
49 52 36 37 26 27 38 42 44 53 59 62 62 64 66 67 68 70 71 71 71 71 70 67 67 66 66 66 66 66 65 64 65 65 66 67 65 64 63 61 60 59 59 59 59 60 60 59 59
43 39 43 40 35 31 31 40 57 50 49 57 61 64 65 66 67 68 69 71 71 70 69 66 65 64 64 64 63 64 64 63 63 64 66 68 66 65 63 61 59 59 58 58 58 58 59 59 59
49 35 35 28 28 34 37 39 57 57 53 52 62 64 65 67 68 68 69 71 70 70 69 66 64 63 61 63 62 62 63 63 63 63 64 64 66 65 63 62 60 58 58 57 57 57 59 59 59

GFSSGP_sfc_temp_129.txt.gz
Temp
65 66 66 66 53 50 47 58 70 69 70 78 81 79 74 75 72 60 79 81 78 74 74 75 73 74 74 75 75 75 75 76 76 75 75 75 76 76 76 76 76 76 78 78 77 77 78 76 75
69 75 68 61 49 42 50 65 66 73 77 81 83 81 79 73 82 80 78 81 78 75 74 73 73 73 74 74 75 75 76 76 75 75 75 75 75 76 76 76 73 73 74 77 78 78 76 74 74
71 76 60 54 48 46 50 64 69 73 80 79 75 80 78 77 81 81 83 81 80 77 75 74 72 73 73 74 74 74 75 75 75 74 75 75 75 76 76 74 73 73 74 74 74 75 76 73 73
69 65 63 50 49 57 64 71 76 76 76 80 77 75 81 86 84 84 85 83 80 79 76 71 71 72 73 74 74 74 74 74 73 74 75 75 76 76 75 72 73 73 74 75 74 74 74 71 72
66 59 49 46 52 62 71 76 75 75 77 78 79 73 75 82 88 88 85 85 79 75 73 71 70 71 73 74 74 73 73 73 73 73 74 75 75 74 73 72 72 73 73 74 73 72 72 71 71
58 59 46 45 55 67 74 79 78 78 79 79 77 75 73 82 85 85 83 80 77 72 71 71 71 71 72 73 73 72 72 72 72 73 73 74 74 73 72 71 72 72 72 72 72 71 72 71 71
54 51 47 51 57 64 72 76 76 75 76 76 81 72 75 79 80 83 82 77 75 73 71 69 69 71 71 71 71 71 71 71 71 74 72 72 71 71 71 71 71 71 71 71 71 71 70 70 70
65 55 50 54 57 60 74 78 80 74 72 82 84 71 68 75 82 81 78 76 74 72 70 69 68 69 68 69 70 70 70 70 71 71 71 70 69 70 70 70 70 71 71 71 71 70 69 69 69
66 55 51 54 58 63 74 75 80 79 74 77 80 79 79 82 83 79 75 72 73 72 71 70 69 69 69 69 70 69 70 71 70 71 70 67 69 69 70 69 70 70 70 70 70 69 67 67 67
58 53 55 64 66 67 74 75 72 75 74 74 75 81 80 81 77 75 74 72 71 71 70 71 69 69 69 72 69 67 70 70 74 73 71 69 68 68 71 69 69 70 69 69 68 67 67 67 66
60 55 63 67 71 73 71 71 73 69 65 73 72 75 79 76 76 74 74 74 75 75 74 72 71 70 70 71 69 69 68 68 70 73 72 71 71 69 69 67 68 67 68 67 67 66 65 66 67
58 65 67 68 72 72 70 69 69 61 69 76 77 76 77 78 73 74 73 73 74 74 75 73 73 71 71 69 69 69 69 69 69 70 70 69 69 68 67 67 66 67 67 66 66 64 64 66 69
61 64 68 71 71 71 72 69 68 70 72 77 77 78 74 75 76 74 76 76 74 74 76 74 74 73 73 70 69 70 70 70 70 70 71 70 70 69 68 67 67 67 66 66 64 64 65 67 68
64 65 65 67 67 69 68 68 64 71 72 75 77 74 74 74 75 75 74 75 75 76 76 75 74 74 73 71 69 70 68 69 70 70 71 71 71 69 69 67 66 66 66 66 66 65 65 65 65
63 56 61 64 65 65 66 62 63 69 72 74 74 76 77 74 76 74 75 75 76 76 75 75 74 74 73 72 70 70 71 69 70 72 70 72 71 69 69 68 66 66 65 65 65 65 65 64 64
56 54 47 60 63 66 65 54 66 70 71 71 74 75 76 77 75 76 76 75 75 75 75 76 78 74 73 73 71 70 70 71 69 70 70 72 71 70 68 68 67 66 65 65 64 64 62 62 62
48 41 46 53 64 63 62 57 67 70 71 71 72 74 75 76 73 75 76 75 75 72 70 69 72 72 72 71 71 70 70 71 71 71 72 70 72 70 69 68 66 66 65 64 63 62 63 61 61
40 42 49 49 56 60 59 59 60 64 66 63 65 70 71 75 73 74 75 75 70 69 70 70 69 69 67 69 69 68 67 69 67 67 71 70 71 69 69 67 67 65 63 63 63 62 62 62 62
51 48 46 53 59 55 55 52 55 59 63 62 65 68 68 69 73 75 74 71 69 69 70 70 69 66 66 64 66 66 66 66 67 69 69 70 70 69 68 67 66 65 63 64 63 62 61 61 62
52 48 47 53 57 55 54 56 54 57 64 65 65 65 66 69 73 75 69 68 67 67 67 68 68 68 67 65 64 65 68 67 69 68 67 67 69 69 67 67 66 66 64 63 62 62 61 60 62
51 48 47 48 53 55 53 49 50 57 64 67 69 71 70 69 71 71 70 65 66 64 66 68 67 67 67 67 65 63 63 63 64 67 67 69 67 69 69 67 66 66 65 63 63 62 62 60 60
45 54 53 50 46 39 47 36 49 52 56 62 65 68 67 69 70 72 67 65 62 63 67 68 68 67 68 67 65 64 61 60 62 65 67 67 67 67 68 67 66 66 64 63 63 63 62 62 59
47 55 51 49 43 41 44 39 46 52 52 57 63 66 69 68 69 66 64 66 65 66 66 66 67 67 65 65 64 62 61 61 61 62 64 66 65 67 66 66 64 64 64 64 63 62 62 62 62
56 51 50 46 41 33 42 38 40 46 52 57 62 66 70 68 65 67 67 66 64 64 64 65 64 64 64 64 63 61 62 61 61 61 63 64 65 65 65 65 64 64 63 62 62 62 62 61 61
48 40 30 29 28 29 44 39 43 51 56 59 61 61 63 65 63 62 64 65 63 62 62 65 63 63 63 63 62 62 63 63 63 63 62 63 63 64 64 64 64 63 63 63 63 63 62 62 60
41 38 28 22 25 30 43 35 43 54 59 63 64 63 64 62 63 63 64 65 64 62 61 63 63 62 64 62 61 62 62 62 64 64 63 65 64 64 65 65 65 64 63 63 62 62 62 62 61
41 34 40 31 33 28 34 41 50 56 57 60 62 63 58 57 59 61 64 64 64 61 60 61 60 61 60 60 63 63 63 63 64 64 64 65 65 64 63 63 63 63 62 62 62 61 60 61 61
43 44 29 32 22 22 31 33 35 48 49 49 53 57 58 57 60 63 62 63 62 61 60 59 60 59 58 58 59 62 62 62 63 63 63 64 64 64 62 60 61 60 60 60 60 60 61 60 60
38 35 35 34 32 26 24 28 41 39 45 46 48 53 57 57 60 62 62 64 63 62 60 58 57 57 55 55 56 56 59 62 61 62 62 63 64 63 62 61 59 59 58 59 59 59 60 59 59
44 35 33 26 25 27 27 28 42 40 45 47 46 55 55 61 62 63 62 62 63 59 58 56 56 56 55 55 54 55 56 59 61 61 62 63 63 63 62 60 58 59 58 58 58 58 58 58 58